[[{"header":{"parameterUnit":"m.s-1","parameterCategory":1,"la1":30.6,"la2":29.2853,"lo1":-89.7004,"lo2":-87.6739,"dy":0.0162,"dx":0.0183,"nx":112,"ny":82,"refTime":"2024-08-19T12:00:00:Z","depth":0,"parameterNumber":2,"parameterNumberName":"U-component_of_WINDS"},"data":[0.0,0.0,0.0,0.0,0.0,0.0,0.0,0.0,0.0,0.0,0.0,0.0,0.0,0.0,0.0,0.0,0.0,0.0,0.0,0.0,0.0,0.0,0.0,0.0,0.0,0.0,0.0,0.0,0.0,0.0,0.0,0.0,0.0,0.0,0.0,0.0,0.0,0.0,0.0,0.0,0.0,0.0,0.0,0.0,0.0,0.0,0.0,0.0,0.0,0.0,0.0,0.0,0.0,0.0,0.0,0.0,0.0,0.0,0.0,0.0,0.0,0.0,0.0,0.0,0.0,0.0,0.0,0.0,0.0,0.0,0.0,0.0,0.0,0.0,0.0,0.0,0.0,0.0,0.0,0.0,0.0,0.0,0.0,0.0,0.0,0.0,0.0,0.0,0.0,0.0,0.0,0.7993,0.818,0.8208,0.8027,0.7988,0.7891,0.7617,0.0,0.0,0.0,0.0,0.0,0.0,0.0,0.0,0.0,0.0,0.0,0.0,0.0,0.0,0.0,0.0,0.0,0.0,0.0,0.0,0.0,0.0,0.0,0.0,0.0,0.0,0.0,0.0,0.0,0.0,0.0,0.0,0.0,0.0,0.0,0.0,0.0,0.0,0.0,0.0,0.0,0.0,0.0,0.0,0.0,0.0,0.0,0.0,0.0,0.0,0.0,0.0,0.0,0.0,0.0,0.0,0.0,0.0,0.0,0.0,0.0,0.0,0.0,0.0,0.0,0.0,0.0,0.0,0.0,0.0,0.0,0.0,0.0,0.0,0.0,0.0,0.0,0.0,0.0,0.0,0.0,0.0,0.0,0.0,0.0,0.0,0.0,0.0,0.0,0.0,0.0,0.0,0.0,0.0,0.0,0.0,0.0,0.0,0.0,0.0,0.0,0.0,0.0,0.0,0.774,0.7986,0.818,0.8208,0.8027,0.7988,0.7891,0.7617,0.0,0.0,0.0,0.0,0.0,0.0,0.0,0.0,0.0,0.0,0.0,0.0,0.0,0.0,0.0,0.0,0.0,0.0,0.0,0.0,0.0,0.0,0.0,0.0,0.0,0.0,0.0,0.0,0.0,0.0,0.0,0.0,0.0,0.0,0.0,0.0,0.0,0.0,0.0,0.0,0.0,0.0,0.0,0.0,0.0,0.0,0.0,0.0,0.0,0.0,0.0,0.0,0.0,0.0,0.0,0.0,0.0,0.0,0.0,0.0,0.0,0.0,0.0,0.0,0.0,0.0,0.0,0.0,0.0,0.0,0.0,0.0,0.0,0.0,0.0,0.0,0.0,0.0,0.0,0.0,0.0,0.0,0.0,0.0,0.0,0.0,0.0,0.0,0.0,0.0,0.0,0.0,0.0,0.0,0.0,0.0,0.0,0.0,0.0,0.0,0.0,0.0,0.0,0.7868,0.8018,0.8147,0.8321,0.8289,0.8033,0.7988,0.7891,0.7617,0.738,0.0,0.0,0.0,0.0,0.0,0.0,0.0,0.0,0.0,0.0,0.0,0.0,0.0,0.0,0.0,0.0,0.0,0.0,0.0,0.0,0.0,0.0,0.0,0.0,0.0,0.0,0.0,0.0,0.0,0.0,0.0,0.0,0.0,0.0,0.0,0.0,0.0,0.0,0.0,0.0,0.0,0.0,0.0,0.0,0.0,0.0,0.0,0.0,0.0,0.0,0.0,0.0,0.0,0.0,0.0,0.0,0.0,0.0,0.0,0.0,0.0,0.0,0.0,0.0,0.0,0.0,0.0,0.0,0.0,0.0,0.0,0.0,0.0,0.0,0.0,0.0,0.0,0.0,0.0,0.0,0.0,0.0,0.0,0.0,0.0,0.0,0.0,0.0,0.0,0.0,0.0,0.0,0.0,0.0,0.0,0.0,0.0,0.0,0.0,0.0,0.0,0.0,0.818,0.8335,0.8301,0.8423,0.8364,0.804,0.7952,0.7817,0.7611,0.7222,0.0,0.0,0.0,0.0,0.0,0.0,0.0,0.0,0.0,0.0,0.0,0.0,0.0,0.0,0.0,0.0,0.0,0.0,0.0,0.0,0.0,0.0,0.0,0.0,0.0,0.0,0.0,0.0,0.0,0.0,0.0,0.0,0.0,0.0,0.0,0.0,0.0,0.0,0.0,0.0,0.0,0.0,0.0,0.0,0.0,0.0,0.0,0.0,0.0,0.0,0.0,0.0,0.0,0.0,0.0,0.0,0.0,0.0,0.0,0.0,0.0,0.0,0.0,0.0,0.0,0.0,0.0,0.0,0.0,0.0,0.0,0.0,0.0,0.0,0.0,0.0,0.0,0.0,0.0,0.0,0.0,0.0,0.0,0.0,0.0,0.0,0.0,0.0,0.0,0.0,0.0,0.0,0.0,0.0,0.0,0.0,0.0,0.0,0.0,0.0,0.0,0.0,0.8201,0.8444,0.8308,0.8423,0.8364,0.804,0.7763,0.7624,0.7604,0.7054,0.0,0.0,0.0,0.0,0.0,0.0,0.0,0.0,0.0,0.0,0.0,0.0,0.0,0.0,0.0,0.0,0.0,0.0,0.0,0.0,0.0,0.0,0.0,0.0,0.0,0.0,0.0,0.0,0.0,0.0,0.0,0.0,0.0,0.0,0.0,0.0,0.0,0.0,0.0,0.0,0.0,0.0,0.0,0.0,0.0,0.0,0.0,0.0,0.0,0.0,0.0,0.0,0.0,0.0,0.0,0.0,0.0,0.0,0.0,0.0,0.0,0.0,0.0,0.0,0.0,0.0,0.0,0.0,0.0,0.0,0.0,0.0,0.0,0.0,0.0,0.0,0.0,0.0,0.0,0.0,0.0,0.0,0.0,0.0,0.0,0.0,0.0,0.0,0.0,0.0,0.0,0.0,0.0,0.0,0.0,0.0,0.0,0.0,0.0,0.0,0.0,0.0,0.8187,0.8389,0.0,0.8478,0.8364,0.804,0.7912,0.7729,0.7498,0.0,0.0,0.0,0.0,0.0,0.0,0.0,0.0,0.0,0.0,0.0,0.0,0.0,0.0,0.0,0.0,0.0,0.0,0.0,0.0,0.0,0.0,0.0,0.0,0.0,0.0,0.0,0.0,0.0,0.0,0.0,0.0,0.0,0.0,0.0,0.0,0.0,0.0,0.0,0.0,0.0,0.0,0.0,0.0,0.0,0.0,0.0,0.0,0.0,0.0,0.0,0.0,0.0,0.0,0.0,0.0,0.0,0.0,0.0,0.0,0.0,0.0,0.0,0.0,0.0,0.0,0.0,0.0,0.0,0.0,0.0,0.0,0.0,0.0,0.0,0.0,0.0,0.0,0.0,0.0,0.0,0.0,0.0,0.0,0.0,0.0,0.0,0.0,0.0,0.0,0.0,0.0,0.0,0.0,0.0,0.0,0.0,0.0,0.0,0.0,0.0,0.0,0.7966,0.8255,0.8471,0.0,0.8539,0.8384,0.8108,0.7959,0.7746,0.7416,0.0,0.0,0.0,0.0,0.0,0.0,0.0,0.0,0.0,0.0,0.0,0.0,0.0,0.0,0.0,0.0,0.0,0.0,0.0,0.0,0.0,0.0,0.0,0.0,0.0,0.0,0.0,0.0,0.0,0.0,0.0,0.0,0.0,0.0,0.0,0.0,0.0,0.0,0.0,0.0,0.0,0.0,0.0,0.0,0.0,0.0,0.0,0.0,0.0,0.0,0.0,0.0,0.0,0.0,0.0,0.0,0.0,0.0,0.0,0.0,0.0,0.0,0.0,0.0,0.0,0.0,0.0,0.0,0.0,0.0,0.0,0.0,0.0,0.0,0.0,0.0,0.0,0.0,0.0,0.0,0.0,0.0,0.0,0.0,0.0,0.0,0.0,0.0,0.0,0.0,0.0,0.0,0.0,0.0,0.0,0.0,0.0,0.0,0.0,0.0,0.0,0.0,0.7979,0.8405,0.871,0.871,0.8574,0.8451,0.8308,0.7886,0.7536,0.0,0.0,0.0,0.0,0.0,0.0,0.0,0.0,0.0,0.0,0.0,0.0,0.0,0.0,0.0,0.0,0.0,0.0,0.0,0.0,0.0,0.0,0.0,0.0,0.0,0.0,0.0,0.0,0.0,0.0,0.0,0.0,0.0,0.0,0.0,0.0,0.0,0.0,0.0,0.0,0.0,0.0,0.0,0.0,0.0,0.0,0.0,0.0,0.0,0.0,0.0,0.0,0.0,0.0,0.0,0.0,0.0,0.0,0.0,0.0,0.0,0.0,0.0,0.0,0.0,0.0,0.0,0.0,0.0,0.0,0.0,0.0,0.0,0.0,0.0,0.0,0.0,0.0,0.0,0.0,0.0,0.0,0.0,0.0,0.0,0.0,0.0,0.0,0.0,0.0,0.0,0.0,0.0,0.0,0.0,0.0,0.0,0.0,0.0,0.0,0.0,0.0,0.0,0.8153,0.8499,0.871,0.871,0.8669,0.854,0.8315,0.8172,0.7828,0.7222,0.0,0.0,0.0,0.0,0.0,0.0,0.0,0.0,0.0,0.0,0.0,0.0,0.0,0.0,0.0,0.0,0.0,0.0,0.0,0.0,0.0,0.0,0.0,0.0,0.0,0.0,0.0,0.0,0.0,0.0,0.0,0.0,0.0,0.0,0.0,0.0,0.0,0.0,0.0,0.0,0.0,0.0,0.0,0.0,0.0,0.0,0.0,0.0,0.0,0.0,0.0,0.0,0.0,0.0,0.0,0.0,0.0,0.0,0.0,0.0,0.0,0.0,0.0,0.0,0.0,0.0,0.0,0.0,0.0,0.0,0.0,0.0,0.0,0.0,0.0,0.0,0.0,0.0,0.0,0.0,0.0,0.0,0.0,0.0,0.0,0.0,0.0,0.0,0.0,0.0,0.0,0.0,0.0,0.0,0.0,0.0,0.0,0.0,0.0,0.0,0.0,0.0,0.8247,0.8581,0.8777,0.8777,0.8723,0.8615,0.8403,0.8328,0.8002,0.7256,0.0,0.0,0.0,0.0,0.0,0.0,0.0,0.0,0.0,0.0,0.0,0.0,0.0,0.0,0.0,0.0,0.0,0.0,0.0,0.0,0.0,0.0,0.0,0.0,0.0,0.0,0.0,0.0,0.0,0.0,0.0,0.0,0.0,0.0,0.0,0.0,0.0,0.0,0.0,0.0,0.0,0.0,0.0,0.0,0.0,0.0,0.0,0.0,0.0,0.0,0.0,0.0,0.0,0.0,0.0,0.0,0.0,0.0,0.0,0.0,0.0,0.0,0.0,0.0,0.0,0.0,0.0,0.0,0.0,0.0,0.0,0.0,0.0,0.0,0.0,0.0,0.0,0.0,0.0,0.0,0.0,0.0,0.0,0.0,0.0,0.0,0.0,0.0,0.0,0.0,0.0,0.0,0.0,0.0,0.0,0.0,0.0,0.0,0.0,0.0,0.0,0.0,0.8274,0.8669,0.8912,0.8912,0.8784,0.8669,0.8539,0.8396,0.8063,0.7471,0.0,0.0,0.0,0.0,0.0,0.0,0.0,0.0,0.0,0.0,0.0,0.0,0.0,0.0,0.0,0.0,0.0,0.0,0.0,0.0,0.0,0.0,0.0,0.0,0.0,0.0,0.0,0.0,0.0,0.0,0.0,0.0,0.0,0.0,0.0,0.0,0.0,0.0,0.0,0.0,0.0,0.0,0.0,0.0,0.0,0.0,0.0,0.0,0.0,0.0,0.0,0.0,0.0,0.0,0.0,0.0,0.0,0.0,0.0,0.0,1.1817,0.0,0.0,0.0,0.0,0.0,0.0,0.0,0.0,0.0,0.0,0.0,0.0,0.0,0.0,0.0,0.0,0.0,0.0,0.0,0.0,0.0,0.0,0.0,0.0,0.0,0.0,0.0,0.0,0.0,0.0,0.0,0.0,0.0,0.0,0.0,0.0,0.0,0.0,0.0,0.0,0.0,0.841,0.8703,0.8912,0.8912,0.8879,0.8798,0.8676,0.8526,0.826,0.7746,0.7584,0.0,0.0,0.0,0.0,0.0,0.0,0.0,0.0,0.0,0.0,0.0,0.0,0.0,0.0,0.0,0.0,0.0,0.0,0.0,0.0,0.0,0.0,0.0,0.0,0.0,0.0,0.0,0.0,0.0,0.0,0.0,0.0,0.0,0.0,0.0,0.0,0.0,0.0,0.0,0.0,0.0,0.0,0.0,0.0,0.0,0.0,0.0,0.0,0.0,0.0,0.0,0.0,0.0,0.0,0.0,0.0,0.0,0.0,0.0,0.0,1.1949,0.0,0.0,0.0,0.0,0.0,0.0,0.0,0.0,0.0,0.0,0.0,0.0,0.0,0.0,0.0,0.0,0.0,0.0,0.0,0.0,0.0,0.0,0.0,0.0,0.0,0.0,0.0,0.0,0.0,0.0,0.0,0.0,0.0,0.0,0.0,0.0,0.0,0.0,0.0,0.0,0.854,0.877,0.894,0.9035,0.8953,0.8852,0.8723,0.8635,0.8397,0.7925,0.7756,0.0,0.0,0.0,0.0,0.0,0.0,0.0,0.0,0.0,0.0,0.0,0.0,0.0,0.0,0.0,0.0,0.0,0.0,0.0,0.0,0.0,0.0,0.0,0.0,0.0,0.0,0.0,0.0,0.0,0.0,0.0,0.0,0.0,0.0,0.0,0.0,0.0,0.0,0.0,0.0,0.0,0.0,0.0,0.0,0.0,0.0,0.0,0.0,0.0,0.0,0.0,0.0,0.0,1.2488,1.2596,1.2569,1.2722,1.2174,1.1166,1.1782,1.143,1.0423,0.0,0.0,0.0,0.0,0.0,0.0,0.0,0.0,0.0,0.0,0.0,0.0,0.0,0.0,0.0,0.0,0.0,0.0,0.0,0.0,0.0,0.0,0.0,0.0,0.0,0.8987,0.8858,0.0,0.0,0.0,0.0,0.0,0.0,0.0,0.0,0.0,0.0,0.0,0.0,0.871,0.8879,0.9049,0.9172,0.9049,0.8885,0.8737,0.8723,0.8527,0.8155,0.7986,0.7821,0.0,0.0,0.0,0.0,0.0,0.0,0.0,0.0,0.0,0.0,0.0,0.0,0.0,0.0,0.0,0.0,0.0,0.0,0.0,0.0,0.0,0.0,0.0,0.0,0.0,0.0,0.0,0.0,0.0,0.0,0.0,0.0,1.1949,1.2033,0.0,0.0,0.0,0.0,0.0,0.0,0.0,0.0,0.0,0.0,0.0,0.0,0.0,1.3169,1.3104,1.2282,1.1829,1.1707,1.1012,1.0581,1.0422,1.0616,1.0594,1.0437,1.053,0.0,0.9398,0.9356,0.0,0.0,0.0,0.0,0.0,0.0,0.0,0.0,0.0,0.0,0.0,0.0,0.0,0.0,0.0,0.0,0.0,0.0,0.0,0.0,0.0,0.0,0.9281,0.9306,0.932,0.9334,0.0,0.8988,0.8608,0.8574,0.0,0.0,0.0,0.0,0.0,0.0,0.0,0.0,0.8845,0.915,0.9308,0.9221,0.9165,0.909,0.8892,0.8757,0.8682,0.8601,0.8479,0.8403,0.8362,0.8085,0.0,0.0,0.0,0.0,0.0,0.0,0.0,0.0,0.0,0.0,0.0,0.0,0.0,0.0,0.0,0.0,0.0,0.0,0.0,0.0,0.0,0.0,0.0,0.0,0.0,0.0,0.0,0.0,0.0,1.3182,1.3247,1.3256,1.3377,1.3746,0.0,0.0,0.0,0.0,0.0,0.0,0.0,0.0,0.0,1.1174,1.1939,1.2055,1.1445,1.1126,1.0938,1.0864,1.0548,1.0365,1.0304,1.046,1.0527,1.0527,1.0527,1.029,0.9914,0.9632,0.9408,0.9198,0.0,0.0,0.0,0.0,0.9103,0.9117,0.93,0.9252,0.0,0.9043,0.0,0.0,0.0,0.0,0.0,0.0,0.0,0.0,0.0,0.0,0.0,0.9873,0.992,0.9934,0.9971,0.9781,0.949,0.0,0.9055,0.8866,0.837,0.0,0.0,0.0,0.0,0.8968,0.9157,0.93,0.9417,0.9437,0.9281,0.9158,0.9062,0.8927,0.8777,0.8716,0.8648,0.8574,0.8512,0.8357,0.8155,0.0,0.0,0.0,0.0,0.0,0.0,0.0,0.0,0.0,0.0,0.0,0.0,0.0,0.0,0.0,0.0,0.0,0.0,0.0,0.0,0.0,0.0,0.0,0.0,0.0,0.0,0.0,0.0,1.3743,1.3657,1.4086,1.3556,1.3641,0.0,0.0,0.0,0.0,0.0,0.0,1.0988,1.2253,1.2039,0.989,1.0912,1.1046,1.0191,1.0337,1.0392,1.0392,1.05,1.0548,1.0555,1.0637,1.0684,1.0684,1.0684,1.0656,1.0521,1.0107,0.9856,0.9677,0.9551,0.9496,0.951,0.9625,0.9618,0.9598,0.99,0.9873,0.9677,0.9632,0.0,0.9288,0.8927,0.0,0.0,0.0,0.0,0.9499,0.9842,0.9937,0.9998,1.0229,1.0315,1.0322,1.0324,1.0337,1.022,0.0,0.9673,0.953,0.8927,0.0,0.0,0.0,0.0,0.9342,0.9422,0.9469,0.9523,0.9598,0.9437,0.9281,0.924,0.9076,0.8947,0.8832,0.8791,0.8716,0.8601,0.856,0.8438,0.8189,0.0,0.0,0.0,0.0,0.0,0.0,0.0,0.0,0.0,0.0,0.0,0.0,0.0,0.0,0.0,0.0,0.0,0.0,0.0,0.0,0.0,0.0,0.0,0.0,0.0,0.0,0.0,0.0,0.0,1.3527,1.1541,0.0,0.0,0.0,0.0,0.9672,1.1025,1.1288,0.9939,1.1386,1.169,1.0504,1.0517,1.0593,1.065,1.0657,1.0664,1.0664,1.0704,1.0677,1.0677,1.0684,1.0684,1.0684,1.0684,1.0684,1.0683,1.0385,1.0168,0.9981,0.9825,0.9765,0.9771,0.9778,0.9866,0.9988,0.9977,0.9977,1.0021,1.0188,1.0032,0.9751,0.9731,0.9666,0.0,0.0,0.9852,1.0015,1.0215,1.0256,1.0295,1.0308,1.0315,1.0317,1.0453,1.048,1.0432,0.0,1.012,0.994,0.9758,0.0,0.9523,0.939,0.9483,0.9591,0.9598,0.9713,0.9717,0.9625,0.9598,0.953,0.941,0.926,0.9193,0.9187,0.9001,0.8892,0.8885,0.875,0.8689,0.8676,0.823,0.0,0.0,0.0,0.0,0.0,0.0,0.0,0.0,0.0,0.0,0.0,0.0,0.0,0.0,0.0,0.0,0.0,0.0,0.0,0.0,0.0,0.0,0.0,0.0,0.0,0.0,0.0,0.0,1.3623,1.2132,0.0,1.2742,1.1699,1.1048,1.1302,1.1107,1.0805,1.0392,1.093,1.1041,1.0636,1.0636,1.0663,1.0684,1.0684,1.0684,1.0684,1.0684,1.0684,1.0684,1.0684,1.0684,1.0684,1.0684,1.0684,1.0677,1.0609,1.0534,1.0441,1.0387,1.0366,1.0366,1.0366,1.04,1.0447,1.0447,1.0387,1.0324,1.029,1.0209,1.0114,1.0114,1.008,1.0073,1.0215,1.029,1.0371,1.0521,1.0561,1.0561,1.0561,1.0561,1.0575,1.0629,1.0636,1.0622,1.0575,1.0439,1.0222,0.9852,0.9944,0.9958,0.97,0.9883,1.0039,1.0039,0.9967,0.992,0.9866,0.969,0.9585,0.953,0.9328,0.9207,0.9207,0.9015,0.8912,0.8912,0.8858,0.8784,0.871,0.8527,0.8304,0.0,0.0,0.0,0.0,0.0,0.0,0.0,0.0,0.0,0.0,0.0,0.0,0.0,0.0,0.0,0.0,0.0,0.0,0.0,0.0,0.0,0.0,0.0,0.0,0.0,0.0,1.3453,1.3927,1.2495,1.1935,1.3226,1.223,1.1656,1.1965,1.1216,1.0765,1.0867,1.0867,1.0867,1.0867,1.0867,1.0867,1.0867,1.0867,1.0867,1.0867,1.0867,1.0867,1.0867,1.0867,1.0846,1.0765,1.0765,1.0732,1.0684,1.0684,1.0684,1.0684,1.0684,1.0684,1.0684,1.0684,1.0684,1.0684,1.0684,1.0656,1.0555,1.046,1.0426,1.0426,1.0426,1.0426,1.0446,1.0541,1.0568,1.0595,1.0697,1.0684,1.0684,1.0684,1.0684,1.0684,1.0684,1.0684,1.0684,1.0684,1.0636,1.0473,1.0175,1.0297,1.0344,1.0086,1.0222,1.0337,1.0315,1.0188,1.0096,1.0096,0.9873,0.9724,0.9724,0.9435,0.9281,0.9335,0.9048,0.8933,0.9008,0.8885,0.8811,0.8757,0.8757,0.8615,0.8292,0.0,0.0,0.0,0.0,0.0,0.0,0.0,0.0,0.0,0.0,0.0,0.0,0.0,0.0,0.0,0.0,0.0,0.0,0.0,0.0,0.0,0.0,0.0,1.3849,1.2789,1.2645,1.4301,1.225,1.1223,1.254,1.1604,1.0982,1.1186,1.12,1.12,1.12,1.12,1.12,1.12,1.12,1.12,1.12,1.12,1.12,1.12,1.12,1.12,1.12,1.12,1.1084,1.0921,1.0921,1.084,1.0738,1.0738,1.0738,1.0698,1.0691,1.0684,1.0684,1.0684,1.0684,1.0684,1.0684,1.0684,1.0684,1.0684,1.0684,1.0684,1.0684,1.0684,1.0684,1.0684,1.0684,1.0684,1.0684,1.0684,1.0684,1.0684,1.0684,1.0684,1.0684,1.0684,1.0684,1.0684,1.0684,1.0684,1.0684,1.0684,1.067,1.0521,1.05,0.0,1.0342,1.0322,1.0322,1.0322,1.0116,1.0028,1.0028,0.9652,0.9456,0.9598,0.9163,0.9008,0.9214,0.8886,0.8777,0.8926,0.8933,0.8933,0.8926,0.0,0.0,0.0,0.0,0.0,0.0,0.0,0.0,0.0,0.0,0.0,0.0,0.0,0.0,0.0,0.0,0.0,0.0,0.0,0.0,0.0,1.442,1.4344,1.2743,1.2689,1.2572,1.1987,1.1399,1.1193,1.1586,1.1323,1.1152,1.1193,1.12,1.12,1.12,1.12,1.12,1.12,1.12,1.12,1.12,1.12,1.12,1.12,1.12,1.12,1.12,1.12,1.1172,1.1104,1.1104,1.1111,1.1077,1.1077,1.1077,1.1057,1.0806,1.0684,1.0684,1.0684,1.0684,1.0684,1.0684,1.0684,1.0684,1.0684,1.0684,1.0684,1.0684,1.0684,1.0684,1.0684,1.0684,1.0684,1.0684,1.0684,1.0684,1.0684,1.0684,1.0684,1.0684,1.0684,1.0684,1.0684,1.0684,1.0684,1.0684,1.0684,1.0704,1.0663,1.0656,0.0,1.0602,1.05,1.0465,1.0465,1.0304,1.0215,1.0215,0.9897,0.9673,0.9612,0.9286,0.9192,0.9342,0.9267,0.9273,0.9393,0.9399,0.9367,0.0,0.0,0.0,0.0,0.0,0.0,0.0,0.0,0.0,0.0,0.0,0.0,0.0,0.0,0.0,0.0,0.0,0.0,0.0,0.0,0.0,0.0,1.3207,1.2953,1.1837,1.2015,1.2008,1.1125,1.1145,1.122,1.1288,1.1314,1.1382,1.1436,1.154,1.1574,1.1574,1.1574,1.1574,1.1574,1.1513,1.1443,1.1443,1.1382,1.1355,1.1355,1.1355,1.1355,1.1355,1.1355,1.1356,0.0,1.1295,1.1254,1.12,1.12,1.12,0.0,0.0,0.0,0.0,0.0,1.0684,1.0684,1.0684,1.0684,1.0684,1.0684,1.0684,1.0684,1.0684,1.0684,1.0684,1.0684,1.0684,1.0684,1.0684,1.0684,1.0684,1.0684,1.0684,1.0684,1.0684,1.0684,1.0684,1.0684,1.0684,0.0,1.0684,1.0684,1.0684,1.0684,1.0684,1.0684,1.0684,1.0643,1.0588,1.0588,1.046,1.0371,1.0371,1.0093,0.0,0.0,0.0,0.9478,0.9476,0.9537,0.0,0.0,0.0,0.0,0.0,0.0,0.0,0.0,0.9795,0.9822,0.0,0.0,0.0,0.0,0.0,0.0,0.0,0.0,0.0,0.0,0.0,0.0,0.0,0.0,0.0,0.0,1.1906,1.1351,1.1255,1.1254,1.1261,1.1227,1.1254,1.1329,1.143,1.1579,1.1721,1.1807,1.1986,1.2098,1.2098,0.0,0.0,0.0,0.0,1.182,1.182,1.1735,1.1667,1.1667,1.1667,1.1624,1.1611,1.1611,1.1558,1.1416,1.1416,1.1376,1.1247,1.1247,1.124,1.1206,1.0995,1.0941,1.0921,1.0772,1.0711,1.0711,1.0724,0.0,0.0,1.0684,1.0684,1.0684,1.0684,1.0684,1.0684,1.0684,1.0684,1.0684,1.0684,1.0684,1.0684,1.0684,1.0684,1.0684,1.0684,1.0684,1.0684,1.0684,1.0684,1.0684,1.0684,1.0684,1.0684,1.0684,1.0684,1.0684,1.0684,1.0684,1.0684,1.0684,0.0,0.0,1.0521,1.0231,1.0116,1.0308,1.0025,0.9815,0.9693,0.9805,0.9886,0.9866,1.0015,1.0211,1.0493,1.0527,1.0616,1.0698,1.0035,1.0039,0.0,0.0,0.0,0.0,0.0,0.0,0.0,0.0,0.0,0.0,0.0,0.0,0.0,0.0,0.0,1.5455,1.5343,1.4629,1.1755,1.1552,1.1613,1.1375,1.1558,1.1678,1.1705,1.1884,1.2023,1.205,1.2084,1.2098,1.2098,1.2098,1.2098,1.2098,1.207,1.2057,1.2057,1.203,1.2016,1.2016,0.0,0.0,1.1753,1.1753,1.1671,1.1572,1.1572,1.1558,1.1531,1.1531,1.1457,1.137,1.1213,1.1159,1.1104,1.0921,1.0874,1.0853,1.0732,1.0684,1.0684,1.0684,1.0684,1.0684,1.0684,1.0684,0.0,1.0684,1.0684,1.0684,1.0684,1.0684,1.0684,1.0684,1.0684,1.0684,1.0684,1.0684,1.0684,1.0684,1.0684,1.0684,1.0684,1.0684,1.0684,1.0684,1.0684,1.0684,1.0684,1.0684,1.0684,1.0684,1.0697,1.0677,1.0677,1.0514,1.0371,1.0283,1.0254,1.0181,1.0186,1.0405,1.0487,1.0365,1.0514,1.0522,1.0493,1.0704,1.084,1.0867,1.0725,1.0718,0.0,0.0,0.0,0.0,0.0,0.0,0.0,0.0,0.0,0.0,0.0,1.8975,1.7777,0.0,1.713,1.405,1.3913,1.3589,1.185,1.1803,1.1864,1.164,1.1809,1.1945,1.1945,1.2088,1.2213,1.2213,1.2244,1.2284,1.2284,1.2284,1.2284,1.2284,1.2254,1.2213,1.2213,1.2139,1.2098,1.2098,1.2098,1.2057,1.1945,1.1945,1.1904,1.1843,1.1843,1.1796,1.1685,1.1611,1.1572,1.1497,1.1423,1.1336,1.1186,1.1084,1.0975,1.0907,1.0826,1.0752,1.0684,1.0684,1.0684,1.0684,1.0684,1.0684,1.0684,1.0684,1.0684,1.0684,1.0684,1.0745,1.0799,1.0799,1.0887,1.0941,1.0941,1.0941,1.0941,1.0941,1.0166,0.9506,0.9506,0.8678,0.864,1.0419,1.0684,1.0684,1.0684,1.0684,1.0684,1.0684,1.0684,1.0684,1.0684,1.0649,1.0575,1.0507,1.05,1.0104,0.9177,0.9267,0.9371,0.9405,0.947,0.9949,1.0859,1.0982,1.1056,1.1056,1.1138,1.1137,0.0,0.0,0.0,0.0,0.0,0.0,0.0,1.9023,1.9466,1.991,2.0069,1.9404,1.7031,1.6455,1.5385,1.2526,1.2151,1.2134,1.1894,1.2006,1.2098,1.1938,1.2033,1.2145,1.2145,1.2244,1.2332,1.2332,1.2467,1.2549,1.2549,1.2549,1.2549,1.2549,1.2406,1.2332,1.2332,1.2247,1.2186,1.2186,1.2186,1.2173,1.2145,1.2145,1.2125,1.2098,1.207,1.1945,1.1786,1.1681,1.1584,1.1584,1.1584,1.147,1.1281,1.1254,1.1131,1.0995,1.0934,1.0833,1.0725,1.0698,1.0684,1.0684,1.0684,1.0452,1.0187,1.0179,0.9933,0.9655,0.9676,0.975,0.9823,0.9847,0.9967,1.0074,1.0074,1.0074,1.0074,1.0074,0.8811,0.7718,0.7718,0.6449,0.6384,0.9244,0.9682,0.9782,1.0147,1.018,1.0313,1.0651,1.0684,1.0552,1.0213,0.9873,0.9685,0.9685,0.9676,0.9024,0.7542,0.7513,0.7584,0.7743,0.7743,0.8511,1.0074,1.0486,1.0679,1.0679,1.1186,1.1436,1.7207,1.7876,1.841,1.8704,1.8796,1.9279,0.0,2.1002,2.1096,2.1911,2.0868,1.9818,1.9796,1.834,1.6582,1.4782,1.451,1.3945,1.2287,1.2207,1.2257,1.2244,1.2257,1.2264,1.2264,1.2393,1.2481,1.2481,1.2617,1.2665,1.2665,1.2665,1.2665,1.2665,1.2556,1.2481,1.2481,1.2461,1.2454,1.2454,1.2454,1.2386,1.2264,1.2264,1.2227,1.2091,1.1918,1.1807,1.1786,1.1681,1.1584,1.1584,1.1584,1.1563,1.1552,1.1416,1.1355,1.1307,1.1009,1.0907,1.0867,1.0732,1.0684,1.0684,1.0684,0.9576,0.8289,0.8288,0.7199,0.5998,0.6004,0.5997,0.6005,0.6003,0.6028,0.6032,0.6032,0.6032,0.6032,0.6032,0.5886,0.5709,0.5709,0.5546,0.5542,0.5941,0.5997,0.6564,0.8097,0.8296,0.89,1.0518,1.0684,1.0047,0.8435,0.6876,0.6009,0.6009,0.6004,0.5906,0.5705,0.5705,0.5712,0.5719,0.5719,0.5823,0.6067,0.7898,0.8797,0.8832,1.0727,1.1592,1.8544,1.896,1.9174,1.9786,2.0201,2.0672,2.1422,2.189,2.2231,2.2639,2.2389,2.1809,2.0829,1.9,1.7078,0.0,1.4087,1.3116,1.2347,1.225,1.2291,1.2291,1.2291,1.2325,1.2406,1.2467,1.2535,1.263,1.2652,1.2766,1.2861,1.2868,1.2868,1.2868,1.2712,1.2637,1.2637,1.2549,1.2501,1.2501,1.2501,1.2467,1.2413,1.2413,1.2379,1.2311,1.2162,1.14,1.0261,1.0102,0.9314,0.8234,0.8234,0.8234,0.8487,1.0716,1.0747,0.9695,0.955,0.8703,0.7697,0.7626,0.7627,0.7617,0.7622,0.7098,0.6485,0.6473,0.596,0.5386,0.5414,0.5454,0.5506,0.5501,0.5576,0.5642,0.5642,0.5642,0.5642,0.5642,0.4722,0.3956,0.3956,0.3007,0.2251,0.2272,0.4067,0.5663,0.6398,0.6498,0.6765,0.7536,0.7603,0.7326,0.6538,0.5832,0.5392,0.5398,0.539,0.4937,0.3888,0.3817,0.3867,0.393,0.393,0.4501,0.5642,0.6495,0.6937,0.6986,0.9076,1.0095,1.9305,1.9693,2.0017,2.0565,2.1208,2.1729,2.181,2.2452,2.3054,2.3134,2.3156,2.2718,2.1269,1.8927,1.6776,1.5334,1.3552,1.2345,1.2345,1.2318,1.2305,1.2345,1.2318,1.2345,1.2488,1.2501,1.2562,1.2679,1.2766,1.2861,1.305,1.3057,1.3057,1.3057,1.2874,1.2793,1.2793,1.2684,1.261,1.2562,1.2562,1.2542,1.2463,1.1914,1.1637,1.1592,1.088,0.9693,0.8318,0.8104,0.7158,0.5802,0.5802,0.5792,0.6134,0.8961,0.9052,0.7754,0.7726,0.6716,0.5461,0.5426,0.5402,0.5392,0.5406,0.5051,0.466,0.4658,0.4282,0.3907,0.3902,0.3973,0.4066,0.4044,0.4114,0.4216,0.4216,0.4216,0.4216,0.4216,0.3067,0.2116,0.2116,0.0924,0.0,0.0,0.2242,0.4104,0.4581,0.5085,0.539,0.539,0.495,0.4666,0.4644,0.4181,0.3894,0.3895,0.3911,0.3335,0.201,0.1938,0.1984,0.211,0.2118,0.2778,0.4202,0.4729,0.5017,0.506,0.71,0.8155,1.9063,1.9987,2.0989,2.0766,2.1368,2.2044,2.2325,2.2838,2.3394,2.3723,2.2641,2.157,2.1249,1.8101,1.5464,1.5136,1.3641,1.2494,1.2494,1.2379,1.2338,1.2481,1.2372,1.2345,1.2488,1.2501,1.2562,1.2679,1.2868,1.3057,1.32,1.3207,1.3207,1.3207,1.3071,1.2996,1.2996,1.2989,1.2874,1.2686,1.2686,1.2644,1.2424,1.043,0.9493,0.9366,0.7138,0.6138,0.6093,0.594,0.587,0.5806,0.5806,0.58,0.5808,0.5917,0.5953,0.5867,0.572,0.5657,0.5573,0.5429,0.5403,0.5403,0.5399,0.4185,0.2768,0.2769,0.152,0.0176,0.0181,0.0181,0.0179,0.0182,0.0182,0.0182,0.0182,0.0182,0.0182,0.0182,0.0146,0.0073,0.0073,0.0036,0.0,0.0,0.0106,0.0805,0.255,0.4324,0.5399,0.5399,0.3839,0.2796,0.2796,0.1169,0.0179,0.0179,0.0181,0.0146,0.0073,0.0073,0.0073,0.0073,0.0074,0.0112,0.0186,0.2064,0.298,0.3019,0.4973,0.595,2.016,2.0735,2.1229,2.171,2.2058,2.2352,2.2645,2.318,2.3594,2.35,2.3233,2.297,2.2653,1.9423,1.6838,1.6831,1.44,1.2501,1.2501,1.2549,1.2528,1.2379,1.2406,0.0,1.2366,1.2447,0.0,1.2861,1.2969,1.3105,1.3308,1.3322,1.3322,1.3322,1.322,1.3146,1.3146,1.305,1.2975,1.2881,1.2779,1.1894,1.043,0.9726,0.8633,0.7306,0.6537,0.5379,0.4074,0.4018,0.3186,0.1953,0.1953,0.1947,0.1941,0.1942,0.1969,0.2135,0.3373,0.2962,0.1876,0.1817,0.1808,0.1806,0.1824,0.14,0.0913,0.0926,0.0463,0.0,0.0,0.0,0.0,0.0,0.0,0.0,0.0,0.0,0.0,0.0,0.0,0.0,0.0,0.0,0.0,0.0,0.0,0.021,0.0841,0.1435,0.1819,0.1819,0.1261,0.0915,0.0922,0.0357,0.0,0.0,0.0,0.0,0.0,0.0,0.0,0.0,0.0,0.0,0.0,0.0643,0.0988,0.1034,0.3057,0.4036,2.0828,2.1269,2.1577,2.2258,2.2498,2.2632,2.2853,2.3281,2.3527,2.322,2.3394,2.3487,2.3073,1.9924,1.7424,1.75,1.4648,1.2461,1.2569,1.2671,1.2638,1.2549,1.2562,1.2569,1.2535,1.261,0.0,1.2989,1.305,1.3186,1.339,1.3403,1.3403,1.3403,1.3308,1.3254,1.3254,1.3207,1.3105,1.3003,1.1989,1.0783,0.9333,0.7851,0.6407,0.5123,0.4383,0.3276,0.1976,0.1976,0.1193,0.0,0.0,0.0,0.0,0.0,0.0,0.0187,0.1437,0.1061,0.0,0.0,0.0,0.0,0.0,0.0,0.0,0.0,0.0,0.0,0.0,0.0,0.0,0.0,0.0,0.0,0.0,0.0,0.0,0.0,0.0,0.0,0.0,0.0,0.0,0.0,0.0,0.0,0.0,0.0,0.0,0.0,0.0,0.0,0.0,0.0,0.0,0.0,0.0,0.0,0.0,0.0,0.0,0.0,0.0,0.0,0.0,0.0,0.0,0.0039,0.1357,0.1984,2.1069,2.1577,2.2071,2.2365,2.2659,2.2893,2.2893,2.3086,2.322,2.2934,2.306,2.3038,2.2485,1.953,1.7147,1.7164,1.4448,1.24,1.2652,1.2713,1.2813,0.0,0.0,0.0,0.0,0.0,0.0,1.3009,0.0,1.3282,1.339,1.3403,1.3403,1.3403,1.3403,1.3403,1.3403,1.3403,1.3213,1.2795,1.0521,0.9304,0.8944,0.4925,0.3053,0.282,0.0863,0.0,0.0,0.0,0.0,0.0,0.0,0.0,0.0,0.0,0.0,0.0,0.0,0.0,0.0,0.0,0.0,0.0,0.0,0.0,0.0,0.0,0.0,0.0,0.0,0.0,0.0,0.0,0.0,0.0,0.0,0.0,0.0,0.0,0.0,0.0,0.0,0.0,0.0,0.0,0.0,0.0,0.0,0.0,0.0,0.0,0.0,0.0,0.0,0.0,0.0,0.0,0.0,0.0,0.0,0.0,0.0,0.0,0.0,0.0,0.0,0.0,0.0,0.0,0.0,0.0,2.1596,2.2031,2.2378,2.2672,2.284,2.2893,2.2893,2.296,2.2899,2.2592,2.2418,2.2218,2.1877,1.8965,1.6668,1.6881,1.439,0.0,1.2665,1.3017,0.0,1.3023,0.0,1.303,1.3009,1.3098,0.0,0.0,1.3193,1.3282,1.339,1.3403,1.3403,1.3403,1.3403,1.3403,1.3403,1.3403,1.2462,1.0598,1.0012,0.7944,0.4652,0.3599,0.2244,0.0755,0.0236,0.0,0.0,0.0,0.0,0.0,0.0,0.0,0.0,0.0,0.0,0.0,0.0,0.0,0.0,0.0,0.0,0.0,0.0,0.0,0.0,0.0,0.0,0.0,0.0,0.0,0.0,0.0,0.0,0.0,0.0,0.0,0.0,0.0,0.0,0.0,0.0,0.0,0.0,0.0,0.0,0.0,0.0,0.0,0.0,0.0,0.0,0.0,0.0,0.0,0.0,0.0,0.0,0.0,0.0,0.0,0.0,0.0,0.0,0.0,0.0,0.0,0.0,0.0,0.0,0.0,2.2004,2.2392,2.2659,2.2853,2.28,2.2632,2.2546,2.2519,2.2358,2.1764,2.1737,2.1455,2.0189,1.7924,1.6108,0.0,0.0,0.0,1.2779,1.3105,1.3288,0.0,1.3268,0.0,1.3254,1.3268,1.3275,0.0,1.3275,1.3308,1.3397,1.3403,1.3403,1.3403,1.3403,1.3403,1.3403,1.3336,1.2137,0.9774,0.883,0.6499,0.3077,0.2159,0.1102,0.0,0.0,0.0,0.0,0.0,0.0,0.0,0.0,0.0,0.0,0.0,0.0,0.0,0.0,0.0,0.0,0.0,0.0,0.0,0.0,0.0,0.0,0.0,0.0,0.0,0.0,0.0,0.0,0.0,0.0,0.0,0.0,0.0,0.0,0.0,0.0,0.0,0.0,0.0,0.0,0.0,0.0,0.0,0.0,0.0,0.0,0.0,0.0,0.0,0.0,0.0,0.0,0.0,0.0,0.0,0.0,0.0,0.0,0.0,0.0,0.0,0.0,0.0,0.0,0.0,0.0,0.0,2.2392,2.2672,2.2893,2.2893,2.2645,2.2338,2.2044,2.1924,2.1643,2.0873,2.1087,2.0692,1.8329,1.6871,1.5601,1.4233,1.2917,1.2309,1.2914,1.3125,1.3275,1.3524,1.3485,1.3451,1.3545,1.3478,1.3403,1.3403,1.3403,1.3403,1.3403,1.3403,1.3403,1.3403,1.3403,1.3403,1.3403,1.298,1.1622,0.9375,0.7127,0.4902,0.263,0.0829,0.0,0.0,0.0,0.0,0.0,0.0,0.0,0.0,0.0,0.0,0.0,0.0,0.0,0.0,0.0,0.0,0.0,0.0,0.0,0.0,0.0,0.0,0.0,0.0,0.0,0.0,0.0,0.0,0.0,0.0,0.0,0.0,0.0,0.0,0.0,0.0,0.0,0.0,0.0,0.0,0.0,0.0,0.0,0.0,0.0,0.0,0.0,0.0,0.0,0.0,0.0,0.0,0.0,0.0,0.0,0.0,0.0,0.0,0.0,0.0,0.0,0.0,0.0,0.0,0.0,0.0,0.0,0.0,2.2733,2.2853,2.2893,2.2893,2.2645,2.2338,2.2044,2.1603,2.1149,2.0793,2.0561,1.9911,1.8221,1.6731,1.5361,1.4172,1.2917,1.2309,1.2914,1.3125,1.3282,0.0,1.3417,1.341,1.3437,1.3417,0.0,0.0,0.0,1.3403,1.3403,1.3403,1.3403,1.3403,1.3403,1.3403,1.3403,1.1529,0.9426,0.7204,0.4958,0.2696,0.0519,0.0158,0.0,0.0,0.0,0.0,0.0,0.0,0.0,0.0,0.0,0.0,0.0,0.0,0.0,0.0,0.0,0.0,0.0,0.0,0.0,0.0,0.0,0.0,0.0,0.0,0.0,0.0,0.0,0.0,0.0,0.0,0.0,0.0,0.0,0.0,0.0,0.0,0.0,0.0,0.0,0.0,0.0,0.0,0.0,0.0,0.0,0.0,0.0,0.0,0.0,0.0,0.0,0.0,0.0,0.0,0.0,0.0,0.0,0.0,0.0,0.0,0.0,0.0,0.0,0.0,0.0,0.0,0.0,0.0,2.2813,2.2893,2.2853,2.2672,2.2405,2.2044,2.1475,2.1082,2.0491,1.9084,1.8902,1.8185,1.5439,1.4615,1.3879,1.2499,1.1902,1.1894,1.2656,1.2779,1.2996,1.3464,1.3451,1.3431,1.3512,1.3451,1.3403,0.0,0.0,1.3403,1.3403,1.3403,1.3403,1.3403,1.3403,1.2851,1.1683,1.059,0.8348,0.499,0.3843,0.2145,0.0,0.0,0.0,0.0,0.0,0.0,0.0,0.0,0.0,0.0,0.0,0.0,0.0,0.0,0.0,0.0,0.0,0.0,0.0,0.0,0.0,0.0,0.0,0.0,0.0,0.0,0.0,0.0,0.0,0.0,0.0,0.0,0.0,0.0,0.0,0.0,0.0,0.0,0.0,0.0,0.0,0.0,0.0,0.0,0.0,0.0,0.0,0.0,0.0,0.0,0.0,0.0,0.0,0.0,0.0,0.0,0.0,0.0,0.0,0.0,0.0,0.0,0.0,0.0,0.0,0.0,0.0,0.0,0.0,0.0,2.2699,2.2853,2.2827,2.2485,2.2205,2.1685,2.0448,2.0151,1.9405,1.6996,1.6871,1.6171,1.2802,1.2606,1.2475,1.0948,1.0941,1.1465,1.2332,1.2481,1.2759,1.3451,1.3451,0.0,1.3566,1.3471,0.0,0.0,0.0,0.0,1.3403,1.3403,1.3189,1.2685,1.2685,1.1635,0.9378,0.8915,0.6912,0.3399,0.2872,0.1665,0.0,0.0,0.0,0.0,0.0,0.0,0.0,0.0,0.0,0.0,0.0,0.0,0.0,0.0,0.0,0.0,0.0,0.0,0.0,0.0,0.0,0.0,0.0,0.0,0.0,0.0,0.0,0.0,0.0,0.0,0.0,0.0,0.0,0.0,0.0,0.0,0.0,0.0,0.0,0.0,0.0,0.0,0.0,0.0,0.0,0.0,0.0,0.0,0.0,0.0,0.0,0.0,0.0,0.0,0.0,0.0,0.0,0.0,0.0,0.0,0.0,0.0,0.0,0.0,0.0,0.0,0.0,0.0,0.0,0.0,2.2458,2.2659,2.2827,2.2485,2.2205,2.1378,1.9059,1.8339,1.7528,1.5298,1.4867,1.4351,1.2517,1.2334,1.2066,1.088,1.0826,1.1245,1.2182,1.242,1.2678,1.32,0.0,0.0,1.3417,1.341,0.0,0.0,0.0,0.0,1.3403,1.3403,1.2436,1.0382,1.0377,0.9295,0.7034,0.503,0.3818,0.3357,0.1314,0.0203,0.0,0.0,0.0,0.0,0.0,0.0,0.0,0.0,0.0,0.0,0.0,0.0,0.0,0.0,0.0,0.0,0.0,0.0,0.0,0.0,0.0,0.0,0.0,0.0,0.0,0.0,0.0,0.0,0.0,0.0,0.0,0.0,0.0,0.0,0.0,0.0,0.0,0.0,0.0,0.0,0.0,0.0,0.0,0.0,0.0,0.0,0.0,0.0,0.0,0.0,0.0,0.0,0.0,0.0,0.0,0.0,0.0,0.0,0.0,0.0,0.0,0.0,0.0,0.0,0.0,0.0,0.0,0.0,0.0,0.0,2.2271,2.2378,2.2345,2.2191,2.197,2.1354,1.9815,1.8649,1.728,1.5048,1.3825,1.2659,1.105,1.0799,1.0738,1.0488,1.0507,1.0826,1.1633,1.1877,1.2203,1.2834,1.3044,0.0,0.0,0.0,0.0,0.0,0.0,0.0,1.1427,1.1344,1.0965,1.0086,0.8749,0.6954,0.4695,0.3818,0.2729,0.1345,0.0452,0.0,0.0,0.0,0.0,0.0,0.0,0.0,0.0,0.0,0.0,0.0,0.0,0.0,0.0,0.0,0.0,0.0,0.0,0.0,0.0,0.0,0.0,0.0,0.0,0.0,0.0,0.0,0.0,0.0,0.0,0.0,0.0,0.0,0.0,0.0,0.0,0.0,0.0,0.0,0.0,0.0,0.0,0.0,0.0,0.0,0.0,0.0,0.0,0.0,0.0,0.0,0.0,0.0,0.0,0.0,0.0,0.0,0.0,0.0,0.0,0.0,0.0,0.0,0.0,0.0,0.0,0.0,0.0,0.0,0.0,0.0,2.1844,2.2004,2.1964,2.1917,2.1676,2.098,1.9222,1.7892,1.6306,1.3721,1.2277,1.114,1.0004,0.9825,0.994,1.0236,1.0317,1.0588,1.1294,1.1525,1.1827,1.2483,0.0,1.2982,0.0,0.0,0.0,0.0,0.0,0.0,0.0,0.879,0.8081,0.8123,0.6533,0.4612,0.2352,0.2352,0.1595,0.0,0.0,0.0,0.0,0.0,0.0,0.0,0.0,0.0,0.0,0.0,0.0,0.0,0.0,0.0,0.0,0.0,0.0,0.0,0.0,0.0,0.0,0.0,0.0,0.0,0.0,0.0,0.0,0.0,0.0,0.0,0.0,0.0,0.0,0.0,0.0,0.0,0.0,0.0,0.0,0.0,0.0,0.0,0.0,0.0,0.0,0.0,0.0,0.0,0.0,0.0,0.0,0.0,0.0,0.0,0.0,0.0,0.0,0.0,0.0,0.0,0.0,0.0,0.0,0.0,0.0,0.0,0.0,0.0,0.0,0.0,0.0,0.0,2.1042,2.155,2.1957,2.1662,2.1336,2.0118,1.6397,1.5279,1.4053,1.0572,0.9852,0.9822,0.9792,0.9913,1.0069,1.0256,1.0399,1.0697,1.1307,1.1525,1.1789,0.0,0.0,1.263,1.2975,0.0,0.0,0.0,0.0,0.0,0.0,0.5867,0.3482,0.3482,0.34,0.2268,0.0042,0.0042,0.0042,0.0,0.0,0.0,0.0,0.0,0.0,0.0,0.0,0.0,0.0,0.0,0.0,0.0,0.0,0.0,0.0,0.0,0.0,0.0,0.0,0.0,0.0,0.0,0.0,0.0,0.0,0.0,0.0,0.0,0.0,0.0,0.0,0.0,0.0,0.0,0.0,0.0,0.0,0.0,0.0,0.0,0.0,0.0,0.0,0.0,0.0,0.0,0.0,0.0,0.0,0.0,0.0,0.0,0.0,0.0,0.0,0.0,0.0,0.0,0.0,0.0,0.0,0.0,0.0,0.0,0.0,0.0,0.0,0.0,0.0,0.0,0.0,0.0,2.0134,2.0347,2.0222,1.9154,1.8717,1.7936,1.5567,1.4175,1.2978,1.1716,1.063,0.9913,0.9812,1.0032,1.029,1.0541,1.0704,1.0907,1.1335,1.1701,0.0,1.2257,1.2779,1.3152,0.0,0.0,0.0,0.0,0.0,0.0,0.0,0.4111,0.3315,0.3315,0.1849,0.0715,0.0,0.0,0.0,0.0,0.0,0.0,0.0,0.0,0.0,0.0,0.0,0.0,0.0,0.0,0.0,0.0,0.0,0.0,0.0,0.0,0.0,0.0,0.0,0.0,0.0,0.0,0.0,0.0,0.0,0.0,0.0,0.0,0.0,0.0,0.0,0.0,0.0,0.0,0.0,0.0,0.0,0.0,0.0,0.0,0.0,0.0,0.0,0.0,0.0,0.0,0.0,0.0,0.0,0.0,0.0,0.0,0.0,0.0,0.0,0.0,0.0,0.0,0.0,0.0,0.0,0.0,0.0,0.0,0.0,0.0,0.0,0.0,0.0,0.0,0.0,0.0,1.9292,1.9546,1.9302,1.7827,1.7357,1.6645,1.4411,1.3138,1.2231,1.1458,1.0562,0.992,0.9886,1.0114,1.0358,1.0595,1.0732,1.0934,1.1295,0.0,0.0,1.2332,0.0,0.0,0.0,0.0,0.0,0.0,0.0,0.0,0.0,0.2552,0.2046,0.2046,0.0711,0.0,0.0,0.0,0.0,0.0,0.0,0.0,0.0,0.0,0.0,0.0,0.0,0.0,0.0,0.0,0.0,0.0,0.0,0.0,0.0,0.0,0.0,0.0,0.0,0.0,0.0,0.0,0.0,0.0,0.0,0.0,0.0,0.0,0.0,0.0,0.0,0.0,0.0,0.0,0.0,0.0,0.0,0.0,0.0,0.0,0.0,0.0,0.0,0.0,0.0,0.0,0.0,0.0,0.0,0.0,0.0,0.0,0.0,0.0,0.0,0.0,0.0,0.0,0.0,0.0,0.0,0.0,0.0,0.0,0.0,0.0,0.0,0.0,0.0,0.0,0.0,0.0,0.0,1.8856,1.8764,1.7288,1.6763,1.5825,1.2875,1.2093,0.0,1.0119,0.9798,0.9852,0.9994,1.0181,1.0344,1.05,1.0663,0.0,0.0,1.1477,0.0,0.0,1.2694,0.0,0.0,0.0,0.0,0.0,0.0,0.0,0.0,0.1123,0.0,0.0,0.0,0.0,0.0,0.0,0.0,0.0,0.0,0.0,0.0,0.0,0.0,0.0,0.0,0.0,0.0,0.0,0.0,0.0,0.0,0.0,0.0,0.0,0.0,0.0,0.0,0.0,0.0,0.0,0.0,0.0,0.0,0.0,0.0,0.0,0.0,0.0,0.0,0.0,0.0,0.0,0.0,0.0,0.0,0.0,0.0,0.0,0.0,0.0,0.0,0.0,0.0,0.0,0.0,0.0,0.0,0.0,0.0,0.0,0.0,0.0,0.0,0.0,0.0,0.0,0.0,0.0,0.0,0.0,0.0,0.0,0.0,0.0,0.0,0.0,0.0,0.0,0.0,0.0,1.5696,0.0,1.6005,1.457,1.342,1.2198,0.0,1.0155,1.0135,0.9855,0.9886,0.9974,0.9977,1.0263,1.0527,1.0765,1.1063,1.1301,1.1484,0.0,0.0,1.2996,1.1651,0.0,0.0,0.0,0.0,0.0,0.0,0.0,0.0,0.029,0.0,0.0,0.0,0.0,0.0,0.0,0.0,0.0,0.0,0.0,0.0,0.0,0.0,0.0,0.0,0.0,0.0,0.0,0.0,0.0,0.0,0.0,0.0,0.0,0.0,0.0,0.0,0.0,0.0,0.0,0.0,0.0,0.0,0.0,0.0,0.0,0.0,0.0,0.0,0.0,0.0,0.0,0.0,0.0,0.0,0.0,0.0,0.0,0.0,0.0,0.0,0.0,0.0,0.0,0.0,0.0,0.0,0.0,0.0,0.0,0.0,0.0,0.0,0.0,0.0,0.0,0.0,0.0,0.0,0.0,0.0,0.0,0.0,0.0,0.0,0.0,0.0,0.0,0.0,0.0,1.3811,1.4111,1.4179,1.2732,1.1956,1.1179,0.9813,0.9496,0.953,0.9605,0.971,0.9859,0.9963,1.0204,1.0514,1.0853,1.1049,0.0,0.0,0.0,1.2212,1.1708,1.0631,0.0,0.0,0.0,0.0,0.0,0.0,0.0,0.0,0.0,0.0,0.0,0.0,0.0,0.0,0.0,0.0,0.0,0.0,0.0,0.0,0.0,0.0,0.0,0.0,0.0,0.0,0.0,0.0,0.0,0.0,0.0,0.0,0.0,0.0,0.0,0.0,0.0,0.0,0.0,0.0,0.0,0.0,0.0,0.0,0.0,0.0,0.0,0.0,0.0,0.0,0.0,0.0,0.0,0.0,0.0,0.0,0.0,0.0,0.0,0.0,0.0,0.0,0.0,0.0,0.0,0.0,0.0,0.0,0.0,0.0,0.0,0.0,0.0,0.0,0.0,0.0,0.0,0.0,0.0,0.0,0.0,0.0,0.0,0.0,0.0,0.0,0.0,0.0,0.0,1.2378,1.2479,1.2599,1.1498,1.1343,1.1112,0.9867,0.9476,0.9424,0.9442,0.9551,0.9704,1.0001,1.0209,1.0453,1.0846,0.0,0.0,1.2036,1.1958,1.1335,0.9926,0.0,0.0,0.0,0.0,0.0,0.0,0.0,0.0,0.0,0.0,0.0,0.0,0.0,0.0,0.0,0.0,0.0,0.0,0.0,0.0,0.0,0.0,0.0,0.0,0.0,0.0,0.0,0.0,0.0,0.0,0.0,0.0,0.0,0.0,0.0,0.0,0.0,0.0,0.0,0.0,0.0,0.0,0.0,0.0,0.0,0.0,0.0,0.0,0.0,0.0,0.0,0.0,0.0,0.0,0.0,0.0,0.0,0.0,0.0,0.0,0.0,0.0,0.0,0.0,0.0,0.0,0.0,0.0,0.0,0.0,0.0,0.0,0.0,0.0,0.0,0.0,0.0,0.0,0.0,0.0,0.0,0.0,0.0,0.0,0.0,0.0,0.0,0.0,0.0,0.0,1.097,1.0378,1.018,1.0808,1.0372,0.9699,0.9473,0.943,0.9449,0.97,0.9744,0.9883,1.0188,1.0365,1.0568,1.086,0.0,1.1651,0.0,0.0,0.9797,0.0,0.0,0.0,0.0,0.0,0.0,0.0,0.0,0.0,0.0,0.0,0.0,0.0,0.0,0.0,0.0,0.0,0.0,0.0,0.0,0.0,0.0,0.0,0.0,0.0,0.0,0.0,0.0,0.0,0.0,0.0,0.0,0.0,0.0,0.0,0.0,0.0,0.0,0.0,0.0,0.0,0.0,0.0,0.0,0.0,0.0,0.0,0.0,0.0,0.0,0.0,0.0,0.0,0.0,0.0,0.0,0.0,0.0,0.0,0.0,0.0,0.0,0.0,0.0,0.0,0.0,0.0,0.0,0.0,0.0,0.0,0.0,0.0,0.0,0.0,0.0,0.0,0.0,0.0,0.0,0.0,0.0,0.0,0.0,0.0,0.0,0.0,0.0,0.0,0.0,0.0,0.9433,0.9105,0.923,0.9694,0.9867,0.99,0.99,0.9741,0.9659,0.9765,0.9852,0.9981,1.0243,1.0466,1.0765,1.1198,0.0,1.1453,1.0734,0.0,0.0,0.0,0.0,0.0,0.0,0.0,0.0,0.0,0.0,0.0,0.0,0.0,0.0,0.0,0.0,0.0,0.0,0.0,0.0,0.0,0.0,0.0,0.0,0.0,0.0,0.0,0.0,0.0,0.0,0.0,0.0,0.0,0.0,0.0,0.0,0.0,0.0,0.0,0.0,0.0,0.0,0.0,0.0,0.0,0.0,0.0,0.0,0.0,0.0,0.0,0.0,0.0,0.0,0.0,0.0,0.0,0.0,0.0,0.0,0.0,0.0,0.0,0.0,0.0,0.0,0.0,0.0,0.0,0.0,0.0,0.0,0.0,0.0,0.0,0.0,0.0,0.0,0.0,0.0,0.0,0.0,0.0,0.0,0.0,0.0,0.0,0.0,0.0,0.0,0.0,0.0,0.0,0.8471,0.8507,0.8926,0.9,0.9557,1.01,1.0202,0.9992,0.9771,0.991,0.9988,1.0116,1.0304,1.0602,0.0,1.1496,1.1732,1.1262,0.0,0.0,0.0,0.0,0.0,0.0,0.0,0.0,0.0,0.0,0.0,0.0,0.0,0.0,0.0,0.0,0.0,0.0,0.0,0.0,0.0,0.0,0.0,0.0,0.0,0.0,0.0,0.0,0.0,0.0,0.0,0.0,0.0,0.0,0.0,0.0,0.0,0.0,0.0,0.0,0.0,0.0,0.0,0.0,0.0,0.0,0.0,0.0,0.0,0.0,0.0,0.0,0.0,0.0,0.0,0.0,0.0,0.0,0.0,0.0,0.0,0.0,0.0,0.0,0.0,0.0,0.0,0.0,0.0,0.0,0.0,0.0,0.0,0.0,0.0,0.0,0.0,0.0,0.0,0.0,0.0,0.0,0.0,0.0,0.0,0.0,0.0,0.0,0.0,0.0,0.0,0.0,0.0,0.0,0.8733,0.8689,0.8973,0.9279,0.943,0.9557,0.994,0.9805,0.9741,1.0161,1.0256,1.0304,1.0453,1.0866,1.1274,1.1565,1.1857,1.1414,0.0,0.0,0.0,0.0,0.0,0.0,0.0,0.0,0.0,0.0,0.0,0.0,0.0,0.0,0.0,0.0,0.0,0.0,0.0,0.0,0.0,0.0,0.0,0.0,0.0,0.0,0.0,0.0,0.0,0.0,0.0,0.0,0.0,0.0,0.0,0.0,0.0,0.0,0.0,0.0,0.0,0.0,0.0,0.0,0.0,0.0,0.0,0.0,0.0,0.0,0.0,0.0,0.0,0.0,0.0,0.0,0.0,0.0,0.0,0.0,0.0,0.0,0.0,0.0,0.0,0.0,0.0,0.0,0.0,0.0,0.0,0.0,0.0,0.0,0.0,0.0,0.0,0.0,0.0,0.0,0.0,0.0,0.0,0.0,0.0,0.0,0.0,0.0,0.0,0.0,0.0,0.0,0.0,0.0,0.83,0.8541,0.896,0.922,0.941,0.9639,1.0093,1.0249,1.0371,1.061,1.0664,1.0677,1.0732,0.0,1.1295,1.1572,1.0754,0.0,0.0,0.0,0.0,0.0,0.0,0.0,0.0,0.0,0.0,0.0,0.0,0.0,0.0,0.0,0.0,0.0,0.0,0.0,0.0,0.0,0.0,0.0,0.0,0.0,0.0,0.0,0.0,0.0,0.0,0.0,0.0,0.0,0.0,0.0,0.0,0.0,0.0,0.0,0.0,0.0,0.0,0.0,0.0,0.0,0.0,0.0,0.0,0.0,0.0,0.0,0.0,0.0,0.0,0.0,0.0,0.0,0.0,0.0,0.0,0.0,0.0,0.0,0.0,0.0,0.0,0.0,0.0,0.0,0.0,0.0,0.0,0.0,0.0,0.0,0.0,0.0,0.0,0.0,0.0,0.0,0.0,0.0,0.0,0.0,0.0,0.0,0.0,0.0,0.0,0.0,0.0,0.0,0.0,0.0,0.8142,0.8486,0.8899,0.9192,0.9444,0.9727,1.0175,1.0399,1.0595,1.0853,1.0914,1.0914,1.0914,1.1063,0.0,0.0,0.0,0.0,0.0,0.0,0.0,0.0,0.0,0.0,0.0,0.0,0.0,0.0,0.0,0.0,0.0,0.0,0.0,0.0,0.0,0.0,0.0,0.0,0.0,0.0,0.0,0.0,0.0,0.0,0.0,0.0,0.0,0.0,0.0,0.0,0.0,0.0,0.0,0.0,0.0,0.0,0.0,0.0,0.0,0.0,0.0,0.0,0.0,0.0,0.0,0.0,0.0,0.0,0.0,0.0,0.0,0.0,0.0,0.0,0.0,0.0,0.0,0.0,0.0,0.0,0.0,0.0,0.0,0.0,0.0,0.0,0.0,0.0,0.0,0.0,0.0,0.0,0.0,0.0,0.0,0.0,0.0,0.0,0.0,0.0,0.0,0.0,0.0,0.0,0.0,0.0,0.0,0.0,0.0,0.0,0.0,0.0,0.8464,0.8594,0.8818,0.9266,0.9496,0.9734,1.0213,1.0199,1.0261,1.0792,1.0914,1.0914,1.0914,1.1063,0.0,0.0,0.0,0.0,0.0,0.0,0.0,0.0,0.0,0.0,0.0,0.0,0.0,0.0,0.0,0.0,0.0,0.0,0.0,0.0,0.0,0.0,0.0,0.0,0.0,0.0,0.0,0.0,0.0,0.0,0.0,0.0,0.0,0.0,0.0,0.0,0.0,0.0,0.0,0.0,0.0,0.0,0.0,0.0,0.0,0.0,0.0,0.0,0.0,0.0,0.0,0.0,0.0,0.0,0.0,0.0,0.0,0.0,0.0,0.0,0.0,0.0,0.0,0.0,0.0,0.0,0.0,0.0,0.0,0.0,0.0,0.0,0.0,0.0,0.0,0.0,0.0,0.0,0.0,0.0,0.0,0.0,0.0,0.0,0.0,0.0,0.0,0.0,0.0,0.0,0.0,0.0,0.0,0.0,0.0,0.0,0.0,0.0,0.8187,0.8486,0.8899,0.9192,0.9571,0.9981,1.0351,1.048,1.0602,1.0853,1.0914,1.088,1.0772,1.0995,0.0,0.0,0.0,0.0,0.0,0.0,0.0,0.0,0.0,0.0,0.0,0.0,0.0,0.0,0.0,0.0,0.0,0.0,0.0,0.0,0.0,0.0,0.0,0.0,0.0,0.0,0.0,0.0,0.0,0.0,0.0,0.0,0.0,0.0,0.0,0.0,0.0,0.0,0.0,0.0,0.0,0.0,0.0,0.0,0.0,0.0,0.0,0.0,0.0,0.0,0.0,0.0,0.0,0.0,0.0,0.0,0.0,0.0,0.0,0.0,0.0,0.0,0.0,0.0,0.0,0.0,0.0,0.0,0.0,0.0,0.0,0.0,0.0,0.0,0.0,0.0,0.0,0.0,0.0,0.0,0.0,0.0,0.0,0.0,0.0,0.0,0.0,0.0,0.0,0.0,0.0,0.0,0.0,0.0,0.0,0.0,0.0,0.0,0.8459,0.8791,0.9191,0.9546,0.9869,1.0191,1.0514,1.0671,1.0806,1.0894,1.0914,1.0887,1.0792,1.0955,0.0,0.0,0.0,0.0,0.0,0.0,0.0,0.0,0.0,0.0,0.0,0.0,0.0,0.0,0.0,0.0,0.0,0.0,0.0,0.0,0.0,0.0,0.0,0.0,0.0,0.0,0.0,0.0,0.0,0.0,0.0,0.0,0.0,0.0,0.0,0.0,0.0,0.0,0.0,0.0,0.0,0.0,0.0,0.0,0.0,0.0,0.0,0.0,0.0,0.0,0.0,0.0,0.0,0.0,0.0,0.0,0.0,0.0,0.0,0.0,0.0,0.0,0.0,0.0,0.0,0.0,0.0,0.0,0.0,0.0,0.0,0.0,0.0,0.0,0.0,0.0,0.0,0.0,0.0,0.0,0.0,0.0,0.0,0.0,0.0,0.0,0.0,0.0,0.0,0.0,0.0,0.0,0.0,0.0,0.0,0.0,0.0,0.0,0.9009,0.9254,0.9533,1.0124,1.0315,1.0392,1.0623,1.0792,1.0894,1.0894,1.0894,1.0894,1.0894,1.0907,0.0,0.0,0.0,0.0,0.0,0.0,0.0,0.0,0.0,0.0,0.0,0.0,0.0,0.0,0.0,0.0,0.0,0.0,0.0,0.0,0.0,0.0,0.0,0.0,0.0,0.0,0.0,0.0,0.0,0.0,0.0,0.0,0.0,0.0,0.0,0.0,0.0,0.0,0.0,0.0,0.0,0.0,0.0,0.0,0.0,0.0,0.0,0.0,0.0,0.0,0.0,0.0,0.0,0.0,0.0,0.0,0.0,0.0,0.0,0.0,0.0,0.0,0.0,0.0,0.0,0.0,0.0,0.0,0.0,0.0,0.0,0.0,0.0,0.0,0.0,0.0,0.0,0.0,0.0,0.0,0.0,0.0,0.0,0.0,0.0,0.0,0.0,0.0,0.0,0.0,0.0,0.0,0.0,0.0,0.0,0.0,0.0,0.0,0.8628,0.8934,0.9349,0.9802,1.0276,1.0643,1.0704,1.0711,1.0738,1.0738,1.0738,1.0738,1.0738,0.0,0.0,0.0,0.0,0.0,0.0,0.0,0.0,0.0,0.0,0.0,0.0,0.0,0.0,0.0,0.0,0.0,0.0,0.0,0.0,0.0,0.0,0.0,0.0,0.0,0.0,0.0,0.0,0.0,0.0,0.0,0.0,0.0,0.0,0.0,0.0,0.0,0.0,0.0,0.0,0.0,0.0,0.0,0.0,0.0,0.0,0.0,0.0,0.0,0.0,0.0,0.0,0.0,0.0,0.0,0.0,0.0,0.0,0.0,0.0,0.0,0.0,0.0,0.0,0.0,0.0,0.0,0.0,0.0,0.0,0.0,0.0,0.0,0.0,0.0,0.0,0.0,0.0,0.0,0.0,0.0,0.0,0.0,0.0,0.0,0.0,0.0,0.0,0.0,0.0,0.0,0.0,0.0,0.0,0.0,0.0,0.0,0.0,0.0,0.8642,0.8974,0.943,0.9992,1.0432,1.0684,1.0684,1.0684,1.0684,1.0684,1.0684,1.0684,1.0684,0.0,0.0,0.0,0.0,0.0,0.0,0.0,0.0,0.0,0.0,0.0,0.0,0.0,0.0,0.0,0.0,0.0,0.0,0.0,0.0,0.0,0.0,0.0,0.0,0.0,0.0,0.0,0.0,0.0,0.0,0.0,0.0,0.0,0.0,0.0,0.0,0.0,0.0,0.0,0.0,0.0,0.0,0.0,0.0,0.0,0.0,0.0,0.0,0.0,0.0,0.0,0.0,0.0,0.0,0.0,0.0,0.0,0.0,0.0,0.0,0.0,0.0,0.0,0.0,0.0,0.0,0.0,0.0,0.0,0.0,0.0,0.0,0.0,0.0,0.0,0.0,0.0,0.0,0.0,0.0,0.0,0.0,0.0,0.0,0.0,0.0,0.0,0.0,0.0,0.0,0.0,0.0,0.0,0.0,0.0,0.0,0.0,0.0,0.0,0.8723,0.915,0.9625,1.0317,1.0609,1.0684,1.0684,1.0684,1.0684,1.0684,1.0684,1.0684,0.0,0.0,0.0,0.0,0.0,0.0,0.0,0.0,0.0,0.0,0.0,0.0,0.0,0.0,0.0,0.0,0.0,0.0,0.0,0.0,0.0,0.0,0.0,0.0,0.0,0.0,0.0,0.0,0.0,0.0,0.0,0.0,0.0,0.0,0.0,0.0,0.0,0.0,0.0,0.0,0.0,0.0,0.0,0.0,0.0,0.0,0.0,0.0,0.0,0.0,0.0,0.0,0.0,0.0,0.0,0.0,0.0,0.0,0.0,0.0,0.0,0.0,0.0,0.0,0.0,0.0,0.0,0.0,0.0,0.0,0.0,0.0,0.0,0.0,0.0,0.0,0.0,0.0,0.0,0.0,0.0,0.0,0.0,0.0,0.0,0.0,0.0,0.0,0.0,0.0,0.0,0.0,0.0,0.0,0.0,0.0,0.0,0.0,0.0,0.0,0.8492,0.9137,0.9876,1.0371,1.0609,1.0684,1.0684,1.0684,1.0684,0.0,1.0684,0.0,0.0,0.0,0.0,0.0,0.0,0.0,0.0,0.0,0.0,0.0,0.0,0.0,0.0,0.0,0.0,0.0,0.0,0.0,0.0,0.0,0.0,0.0,0.0,0.0,0.0,0.0,0.0,0.0,0.0,0.0,0.0,0.0,0.0,0.0,0.0,0.0,0.0,0.0,0.0,0.0,0.0,0.0,0.0,0.0,0.0,0.0,0.0,0.0,0.0,0.0,0.0,0.0,0.0,0.0,0.0,0.0,0.0,0.0,0.0,0.0,0.0,0.0,0.0,0.0,0.0,0.0,0.0,0.0,0.0,0.0,0.0,0.0,0.0,0.0,0.0,0.0,0.0,0.0,0.0,0.0,0.0,0.0,0.0,0.0,0.0,0.0,0.0,0.0,0.0,0.0,0.0,0.0,0.0,0.0,0.0,0.0,0.0,0.0,0.0,0.0,0.8628,0.915,0.9707,1.0243,1.048,1.0616,1.0671,1.0684,1.0684,1.0684,0.0,0.0,0.0,0.0,0.0,0.0,0.0,0.0,0.0,0.0,0.0,0.0,0.0,0.0,0.0,0.0,0.0,0.0,0.0,0.0,0.0,0.0,0.0,0.0,0.0,0.0,0.0,0.0,0.0,0.0,0.0,0.0,0.0,0.0,0.0,0.0,0.0,0.0,0.0,0.0,0.0,0.0,0.0,0.0,0.0,0.0,0.0,0.0,0.0,0.0,0.0,0.0,0.0,0.0,0.0,0.0,0.0,0.0,0.0,0.0,0.0,0.0,0.0,0.0,0.0,0.0,0.0,0.0,0.0,0.0,0.0,0.0,0.0,0.0,0.0,0.0,0.0,0.0,0.0,0.0,0.0,0.0,0.0,0.0,0.0,0.0,0.0,0.0,0.0,0.0,0.0,0.0,0.0,0.0,0.0,0.0,0.0,0.0,0.0,0.0,0.0,0.0,0.8656,0.9042,0.9401,0.9971,1.0249,1.0432,1.0616,0.0,1.067,0.0,0.0,0.0,0.0,0.0,0.0,0.0,0.0,0.0,0.0,0.0,0.0,0.0,0.0,0.0,0.0,0.0,0.0,0.0,0.0,0.0,0.0,0.0,0.0,0.0,0.0,0.0,0.0,0.0,0.0,0.0,0.0,0.0,0.0,0.0,0.0,0.0,0.0,0.0,0.0,0.0,0.0,0.0,0.0,0.0,0.0,0.0,0.0,0.0,0.0,0.0,0.0,0.0,0.0,0.0,0.0,0.0,0.0,0.0,0.0,0.0,0.0,0.0,0.0,0.0,0.0,0.0,0.0,0.0,0.0,0.0,0.0,0.0,0.0,0.0,0.0,0.0,0.0,0.0,0.0,0.0,0.0,0.0,0.0,0.0,0.0,0.0,0.0,0.0,0.0,0.0,0.0,0.0,0.0,0.0,0.0,0.0,0.0,0.0,0.0,0.0,0.0,0.0,0.8425,0.873,0.9041,0.953,0.9832,1.0116,0.0,0.0,0.0,0.0,0.0,0.0,0.0,0.0,0.0,0.0,0.0,0.0,0.0,0.0,0.0,0.0,0.0,0.0,0.0,0.0,0.0,0.0,0.0,0.0,0.0,0.0,0.0,0.0,0.0,0.0,0.0,0.0,0.0,0.0,0.0,0.0,0.0,0.0,0.0,0.0,0.0,0.0,0.0,0.0,0.0,0.0,0.0,0.0,0.0,0.0,0.0,0.0,0.0,0.0,0.0,0.0,0.0,0.0,0.0,0.0,0.0,0.0,0.0,0.0,0.0,0.0,0.0,0.0,0.0,0.0,0.0,0.0,0.0,0.0,0.0,0.0,0.0,0.0,0.0,0.0,0.0,0.0,0.0,0.0,0.0,0.0,0.0,0.0,0.0,0.0,0.0,0.0,0.0,0.0,0.0,0.0,0.0,0.0,0.0,0.0,0.0,0.0,0.0,0.0,0.0,0.0,0.8377,0.856,0.875,0.9233,0.9544,0.9792,0.9988,1.0283,1.0507,0.0,0.0,0.0,0.0,0.0,0.0,0.0,0.0,0.0,0.0,0.0,0.0,0.0,0.0,0.0,0.0,0.0,0.0,0.0,0.0,0.0,0.0,0.0,0.0,0.0,0.0,0.0,0.0,0.0,0.0,0.0,0.0,0.0,0.0,0.0,0.0,0.0,0.0,0.0,0.0,0.0,0.0,0.0,0.0,0.0,0.0,0.0,0.0,0.0,0.0,0.0,0.0,0.0,0.0,0.0,0.0,0.0,0.0,0.0,0.0,0.0,0.0,0.0,0.0,0.0,0.0,0.0,0.0,0.0,0.0,0.0,0.0,0.0,0.0,0.0,0.0,0.0,0.0,0.0,0.0,0.0,0.0,0.0,0.0,0.0,0.0,0.0,0.0,0.0,0.0,0.0,0.0,0.0,0.0,0.0,0.0,0.0,0.0,0.0,0.0,0.0,0.0,0.0,0.8174,0.8355,0.8546,0.8995,0.9198,0.9415,0.9778,0.0,1.0236,0.0,0.0,0.0,0.0,0.0,0.0,0.0,0.0,0.0,0.0,0.0,0.0,0.0,0.0,0.0,0.0,0.0,0.0,0.0,0.0,0.0,0.0,0.0,0.0,0.0,0.0,0.0,0.0,0.0,0.0,0.0,0.0,0.0,0.0,0.0,0.0,0.0,0.0,0.0,0.0,0.0,0.0,0.0,0.0,0.0,0.0,0.0,0.0,0.0,0.0,0.0,0.0,0.0,0.0,0.0,0.0,0.0,0.0,0.0,0.0,0.0,0.0,0.0,0.0,0.0,0.0,0.0,0.0,0.0,0.0,0.0,0.0,0.0,0.0,0.0,0.0,0.0,0.0,0.0,0.0,0.0,0.0,0.0,0.0,0.0,0.0,0.0,0.0,0.0,0.0,0.0,0.0,0.0,0.0,0.0,0.0,0.0,0.0,0.0,0.0,0.0,0.0,0.0,0.0,0.0,0.0,0.0,0.0,0.0,0.9771,0.0,0.972,0.0,0.0,0.0,0.0,0.0,0.0,0.0,0.0,0.0,0.0,0.0,0.0,0.0,0.0,0.0,0.0,0.0,0.0,0.0,0.0,0.0,0.0,0.0,0.0,0.0,0.0,0.0,0.0,0.0,0.0,0.0,0.0,0.0,0.0,0.0,0.0,0.0,0.0,0.0,0.0,0.0,0.0,0.0,0.0,0.0,0.0,0.0,0.0,0.0,0.0,0.0,0.0,0.0,0.0,0.0,0.0,0.0,0.0,0.0,0.0,0.0,0.0,0.0,0.0,0.0,0.0,0.0,0.0,0.0,0.0,0.0,0.0,0.0,0.0,0.0,0.0,0.0,0.0,0.0,0.0,0.0,0.0,0.0,0.0,0.0,0.0,0.0,0.0,0.0,0.0,0.0,0.0,0.0,0.0,0.0,0.0,0.0,0.0,0.0,0.0,0.0,0.0,0.0,0.778,0.0,0.0,0.0,0.0,0.0,0.0,0.0,0.0,0.0,0.0,0.0,0.0,0.0,0.0,0.0,0.0,0.0,0.0,0.0,0.0,0.0,0.0,0.0,0.0,0.0,0.0,0.0,0.0,0.0,0.0,0.0,0.0,0.0,0.0,0.0,0.0,0.0,0.0,0.0,0.0,0.0,0.0,0.0,0.0,0.0,0.0,0.0,0.0,0.0,0.0,0.0,0.0,0.0,0.0,0.0,0.0,0.0,0.0,0.0,0.0,0.0,0.0,0.0,0.0,0.0,0.0,0.0,0.0,0.0,0.0,0.0,0.0,0.0,0.0,0.0,0.0,0.0,0.0,0.0,0.0,0.0,0.0,0.0,0.0,0.0,0.0,0.0,0.0,0.0,0.0,0.0,0.0,0.0,0.0,0.0,0.0,0.0,0.0,0.0,0.0,0.0,0.0,0.0,0.0,0.0,0.0,0.0,0.0,0.0,0.0,0.0,0.0,0.0,0.0,0.0,0.0,0.0,0.0,0.8893,0.0,0.0,0.0,0.0,0.0,0.0,0.0,0.0,0.0,0.0,0.0,0.0,0.0,0.0,0.0,0.0,0.0,0.0,0.0,0.0,0.0,0.0,0.0,0.0,0.0,0.0,0.0,0.0,0.0,0.0,0.0,0.0,0.0,0.0,0.0,0.0,0.0,0.0,0.0,0.0,0.0,0.0,0.0,0.0,0.0,0.0,0.0,0.0,0.0,0.0,0.0,0.0,0.0,0.0,0.0,0.0,0.0,0.0,0.0,0.0,0.0,0.0,0.0,0.0,0.0,0.0,0.0,0.0,0.0,0.0,0.0,0.0,0.0,0.0,0.0,0.0,0.0,0.0,0.0,0.0,0.0,0.0,0.0,0.0,0.0,0.0,0.0,0.0,0.0,0.0,0.0,0.0,0.0,0.0,0.0,0.0,0.0,0.0,0.0,0.0,0.0,0.0,0.0,0.0,0.779,0.7912,0.0,0.0,0.0,0.0,0.892,0.8879,0.8356,0.0,0.0,0.0,0.0,0.0,0.0,0.0,0.0,0.0,0.0,0.0,0.0,0.0,0.0,0.0,0.0,0.0,0.0,0.0,0.0,0.0,0.0,0.0,0.0,0.0,0.0,0.0,0.0,0.0,0.0,0.0,0.0,0.0,0.0,0.0,0.0,0.0,0.0,0.0,0.0,0.0,0.0,0.0,0.0,0.0,0.0,0.0,0.0,0.0,0.0,0.0,0.0,0.0,0.0,0.0,0.0,0.0,0.0,0.0,0.0,0.0,0.0,0.0,0.0,0.0,0.0,0.0,0.0,0.0,0.0,0.0,0.0,0.0,0.0,0.0,0.0,0.0,0.0,0.0,0.0,0.0,0.0,0.0,0.0,0.0,0.0,0.0,0.0,0.0,0.0,0.0,0.0,0.0,0.0,0.0,0.0,0.0,0.0,0.0,0.0,0.0,0.0,0.0,0.7817,0.8011,0.8208,0.8115,0.0,0.0,0.8284,0.8397,0.8176,0.0,0.0,0.0,0.0,0.0,0.0,0.0,0.0,0.0,0.0,0.0,0.0,0.0,0.0,0.0,0.0,0.0,0.0,0.0,0.0,0.0,0.0,0.0,0.0,0.0,0.0,0.0,0.0,0.0,0.0,0.0,0.0,0.0,0.0,0.0,0.0,0.0,0.0,0.0,0.0,0.0,0.0,0.0,0.0,0.0,0.0,0.0,0.0,0.0,0.0,0.0,0.0,0.0,0.0,0.0,0.0,0.0,0.0,0.0,0.0,0.0,0.0,0.0,0.0,0.0,0.0,0.0,0.0,0.0,0.0,0.0,0.0,0.0,0.0,0.0,0.0,0.0,0.0,0.0,0.0,0.0,0.0,0.0,0.0,0.0,0.0,0.0,0.0,0.0,0.0,0.0,0.0,0.0,0.0,0.0,0.0,0.0,0.0,0.0,0.0,0.0,0.0,0.0,0.7946,0.8013,0.8153,0.8153,0.0,0.0,0.0,0.7821,0.7017,0.5647,0.0,0.0,0.0,0.0,0.0,0.0,0.0,0.0,0.0,0.0,0.0,0.0,0.0,0.0,0.0,0.0,0.0,0.0,0.0,0.0,0.0,0.0,0.0,0.0,0.0,0.0,0.0,0.0,0.0,0.0,0.0,0.0,0.0,0.0,-0.0505,-0.1344,-0.1344,-0.1848,-0.2685,-0.2685,-0.2685,-0.2618,-0.1713,-0.0807,-0.0235,-0.2016,-0.2115,-0.1478,-0.2383,-0.2115,-0.1344,-0.1344,-0.074,0.0,0.0,0.0,0.0,0.0,0.0,0.0,0.0,0.0,0.0,0.0,0.0,0.0,0.0,0.0,0.0,0.0,0.0,0.0,0.0,0.0,0.0,0.0,0.0,0.0,0.0,0.0,0.0,0.0,0.0,0.0,0.0,0.0,0.0,0.0,0.0,0.0,0.0,0.0,0.0,0.0,0.0,0.0,0.0,0.0,0.0,0.0,0.0,0.0,0.0,0.0,0.0,0.0,0.0,0.7866,0.0,0.0,0.0,0.4086,0.0,0.0,0.0,0.0,0.0,0.0,0.0,0.0,0.0,0.0,0.0,0.0,0.0,0.0,0.0,0.0,0.0,0.0,0.0,0.0,0.0,0.0,0.0,0.0,0.0,0.0,0.0,0.0,0.0,0.0,-0.037,-0.0505,-0.0538,-0.0874,-0.1848,-0.3222,-0.3222,-0.4057,-0.5396,-0.5396,-0.5396,-0.5262,-0.3789,-0.2316,-0.1377,-0.4325,-0.4459,-0.3423,-0.4894,-0.4225,-0.2685,-0.2685,-0.1478,0.0,0.0,0.0,0.0,0.0,0.0,0.0,0.0,0.0,0.0,0.0,0.0,0.0,0.0,0.0,0.0,0.0,0.0,0.0,0.0,0.0,0.0,0.0,0.0,0.0,0.0,0.0,0.0,0.0,0.0,0.0,0.0,0.0,0.0,0.0,0.0,0.0,0.0,0.0,0.0,0.0,0.0,0.0,0.0,0.0,0.0,0.0,0.0,0.0,0.0,0.0,0.0,0.0,0.7758,0.0,0.0,0.0,0.4224,0.2579,0.0,0.0,0.0,0.0,0.0,0.0,0.0,0.0,0.0,0.0,0.0,0.0,0.0,0.0,0.0,0.0,0.0,0.0,0.0,0.0,0.0,0.0,0.0,0.0,0.0,0.0,0.0,0.0,0.0,-0.0034,-0.1613,-0.2383,-0.245,-0.4057,-0.4894,-0.5095,-0.5095,-0.5195,-0.5396,-0.5396,-0.5396,-0.5396,-0.5162,-0.4961,-0.4827,-0.5262,-0.5262,-0.5128,-0.5329,-0.4225,-0.2685,-0.2685,-0.1478,0.0,0.0,0.0,0.0,0.0,0.0,0.0,0.0,0.0,0.0,0.0,0.0,0.0,0.0,0.0,0.0,0.0,0.0,0.0,0.0,0.0,0.0,0.0,0.0,0.0,0.0,0.0,0.0,0.0,0.0,0.0,0.0,0.0,0.0,0.0,0.0,0.0,0.0,0.0,0.0,0.0,0.0,0.0,0.0,0.0,0.0,0.0,0.0,0.0,0.0,0.0,0.0,0.0,0.0,0.0,0.5201,0.0,0.2853,0.0,0.0,0.0,0.0,0.0,0.0,0.0,0.0,0.0,0.0,0.0,0.0,0.0,0.0,0.0,0.0,0.0,0.0,0.0,0.0,0.0,0.0,0.0,0.0,0.0,-0.1009,-0.1579,-0.1579,-0.1579,-0.1579,-0.1579,-0.235,-0.2685,-0.2752,-0.4559,-0.5964,-0.6898,-0.6898,-0.7498,-0.8473,-0.8473,-0.8473,-0.8473,-0.8473,-0.7203,-0.5663,-0.7702,-0.7802,-0.7065,-0.8102,-0.7298,-0.5593,-0.4593,-0.2316,-0.0202,-0.1244,-0.084,0.0,0.0,0.0,0.0,0.0,0.0,0.0,0.0,0.0,0.0,0.0,0.0,0.0,0.0,0.0,0.0,0.0,0.0,0.0,0.0,0.0,0.0,0.0,0.0,0.0,0.0,0.0,0.0,0.0,0.0,0.0,0.0,0.0,0.0,0.0,0.0,0.0,0.0,0.0,0.0,0.0,0.0,0.0,0.0,0.0,0.0,0.8122,0.0,0.0,0.0,0.0,0.0,0.0,0.0,0.0,0.0,0.0,0.0,0.0,0.0,0.0,0.0,0.0,0.0,0.0,0.0,0.0,0.0,0.0,0.0,0.0,0.0,0.0,0.0,0.0,0.0,0.0,0.0,-0.0235,-0.074,-0.2016,-0.2954,-0.3423,-0.3457,-0.3457,-0.3454,-0.3923,-0.4155,-0.4225,-0.603,-0.7536,-0.8734,-0.8734,-0.9477,-1.0684,-1.0684,-1.0684,-1.0684,-1.0684,-0.9111,-0.7169,-0.9748,-0.9875,-0.8933,-1.0246,-0.951,-0.7698,-0.5964,-0.3622,-0.1646,-0.245,-0.178,-0.0639,-0.0135,0.0,0.0,0.0,0.0,0.0,0.0,0.0,0.0,0.0,0.0,0.0,0.0,0.0,0.0,0.0,0.0,0.0,0.0,0.0,0.0,0.0,0.0,0.0,0.0,0.0,0.0,0.0,0.0,0.0,0.0,0.0,0.0,0.0,0.0,0.0,0.0,0.0,0.0,0.0,0.0,0.0,0.0,0.0,0.0,0.0,0.0,0.0,0.4725,0.0,0.0,0.0,0.0,0.0053,0.0,0.0,0.0,0.0,0.0,0.0,0.0,0.0,0.0,0.0,0.0,0.0,0.0,0.0,0.0,0.0,0.0,0.0,0.0,0.0,0.0,0.0,0.0,-0.0796,-0.255,-0.2685,-0.3555,-0.5295,-0.5295,-0.5295,-0.5329,-0.7031,-0.7831,-0.7897,-0.9709,-1.0552,-1.0618,-1.0618,-1.0651,-1.0684,-1.0684,-1.0684,-1.0684,-1.0684,-1.0618,-1.0552,-1.0651,-1.0651,-1.0618,-1.0684,-0.951,-0.7698,-0.5964,-0.5329,-0.4894,-0.3222,-0.2652,-0.2249,-0.0505,0.0,0.0,0.0,0.0,0.0,0.0,0.0,0.0,0.0,0.0,0.0,0.0,0.0,0.0,0.0,0.0,0.0,0.0,0.0,0.0,0.0,0.0,0.0,0.0,0.0,0.0,0.0,0.0,0.0,0.0,0.0,0.0,0.0,0.0,0.0,0.0,0.0,0.0,0.0,0.0,0.0,0.0,0.0,0.0,0.0,0.0,0.4923,0.3292,0.0,0.0,0.0,0.0,0.0,0.0,0.0,0.0,0.0,0.0,0.0,0.0,0.0,0.0,0.0,0.0,0.0,0.0,0.0,0.0,0.0,0.0,0.0,0.0,0.0,0.0,0.0,0.0,-0.0297,-0.0895,-0.3239,-0.4794,-0.5396,-0.6531,-0.7131,-0.7131,-0.7731,-0.7997,-0.8064,-0.9875,-1.0684,-1.0684,-1.0684,-1.0684,-1.0684,-1.0684,-1.0684,-1.0684,-1.0684,-1.0684,-1.0684,-1.0684,-1.0684,-1.0684,-1.0684,-0.951,-0.8097,-0.8706,-0.7303,-0.5295,-0.466,-0.3655,-0.2316,-0.0505,0.0,0.0,0.0,-0.0874,-0.178,-0.178,-0.2719,-0.3591,-0.3591,-0.3591,-0.3591,-0.3591,-0.3591,-0.3591,-0.3591,-0.3591,-0.2752,-0.037,0.0,0.0,0.0,0.0,0.0,0.0,0.0,0.0,0.0,0.0,0.0,0.0,0.0,0.0,0.0,0.0,0.0,0.0,0.0,0.0,0.0,0.0,0.0,0.0,0.0,0.0,0.4064,0.3689,0.0,0.1809,0.1409,0.0,0.0209,0.0,0.0,0.0,0.0,0.0,0.0,0.0,0.0,0.0,0.0,0.0,0.0,0.0,0.0,0.0,0.0,0.0,0.0,0.0,0.0,0.0,0.0,0.0,0.0,0.0,-0.059,-0.1874,-0.4195,-0.5997,-0.7269,-0.8402,-0.8972,-0.8972,-0.8972,-0.8972,-0.9006,-1.018,-1.0684,-1.0684,-1.0684,-1.0684,-1.0684,-1.0684,-1.0684,-1.0684,-1.0684,-1.0684,-1.0684,-1.0684,-1.0684,-1.0684,-1.0684,-0.9948,-0.9138,-1.0313,-0.9144,-0.7169,-0.6531,-0.5492,-0.4225,-0.2417,-0.1915,-0.1915,-0.1915,-0.2786,-0.3655,-0.3655,-0.4559,-0.5396,-0.5396,-0.5396,-0.5396,-0.5396,-0.4894,-0.4426,-0.4426,-0.389,-0.292,-0.121,-0.0975,-0.074,-0.0067,0.0,0.0,0.0,-0.0572,-0.121,-0.1881,-0.1344,-0.1244,-0.1881,-0.131,-0.1244,-0.1881,-0.131,-0.0975,-0.0975,-0.0336,0.0,0.0,0.0,0.0,0.0,0.0,0.0]},{"header":{"parameterUnit":"m.s-1","parameterCategory":1,"la1":30.6,"la2":29.2853,"lo1":-89.7004,"lo2":-87.6739,"dy":0.0162,"dx":0.0183,"nx":112,"ny":82,"refTime":"2024-08-19T12:00:00:Z","depth":0,"parameterNumber":3,"parameterNumberName":"V-component_of_WINDS"},"data":[0.0,0.0,0.0,0.0,0.0,0.0,0.0,0.0,0.0,0.0,0.0,0.0,0.0,0.0,0.0,0.0,0.0,0.0,0.0,0.0,0.0,0.0,0.0,0.0,0.0,0.0,0.0,0.0,0.0,0.0,0.0,0.0,0.0,0.0,0.0,0.0,0.0,0.0,0.0,0.0,0.0,0.0,0.0,0.0,0.0,0.0,0.0,0.0,0.0,0.0,0.0,0.0,0.0,0.0,0.0,0.0,0.0,0.0,0.0,0.0,0.0,0.0,0.0,0.0,0.0,0.0,0.0,0.0,0.0,0.0,0.0,0.0,0.0,0.0,0.0,0.0,0.0,0.0,0.0,0.0,0.0,0.0,0.0,0.0,0.0,0.0,0.0,0.0,0.0,0.0,0.0,4.5475,4.6394,4.6547,4.5667,4.5594,4.4898,4.3201,0.0,0.0,0.0,0.0,0.0,0.0,0.0,0.0,0.0,0.0,0.0,0.0,0.0,0.0,0.0,0.0,0.0,0.0,0.0,0.0,0.0,0.0,0.0,0.0,0.0,0.0,0.0,0.0,0.0,0.0,0.0,0.0,0.0,0.0,0.0,0.0,0.0,0.0,0.0,0.0,0.0,0.0,0.0,0.0,0.0,0.0,0.0,0.0,0.0,0.0,0.0,0.0,0.0,0.0,0.0,0.0,0.0,0.0,0.0,0.0,0.0,0.0,0.0,0.0,0.0,0.0,0.0,0.0,0.0,0.0,0.0,0.0,0.0,0.0,0.0,0.0,0.0,0.0,0.0,0.0,0.0,0.0,0.0,0.0,0.0,0.0,0.0,0.0,0.0,0.0,0.0,0.0,0.0,0.0,0.0,0.0,0.0,0.0,0.0,0.0,0.0,0.0,0.0,0.0,4.3893,4.5436,4.6394,4.6547,4.5667,4.5594,4.4898,4.3201,0.0,0.0,0.0,0.0,0.0,0.0,0.0,0.0,0.0,0.0,0.0,0.0,0.0,0.0,0.0,0.0,0.0,0.0,0.0,0.0,0.0,0.0,0.0,0.0,0.0,0.0,0.0,0.0,0.0,0.0,0.0,0.0,0.0,0.0,0.0,0.0,0.0,0.0,0.0,0.0,0.0,0.0,0.0,0.0,0.0,0.0,0.0,0.0,0.0,0.0,0.0,0.0,0.0,0.0,0.0,0.0,0.0,0.0,0.0,0.0,0.0,0.0,0.0,0.0,0.0,0.0,0.0,0.0,0.0,0.0,0.0,0.0,0.0,0.0,0.0,0.0,0.0,0.0,0.0,0.0,0.0,0.0,0.0,0.0,0.0,0.0,0.0,0.0,0.0,0.0,0.0,0.0,0.0,0.0,0.0,0.0,0.0,0.0,0.0,0.0,0.0,0.0,0.0,4.4624,4.547,4.6201,4.7043,4.7009,4.5706,4.5594,4.4898,4.3201,4.1854,0.0,0.0,0.0,0.0,0.0,0.0,0.0,0.0,0.0,0.0,0.0,0.0,0.0,0.0,0.0,0.0,0.0,0.0,0.0,0.0,0.0,0.0,0.0,0.0,0.0,0.0,0.0,0.0,0.0,0.0,0.0,0.0,0.0,0.0,0.0,0.0,0.0,0.0,0.0,0.0,0.0,0.0,0.0,0.0,0.0,0.0,0.0,0.0,0.0,0.0,0.0,0.0,0.0,0.0,0.0,0.0,0.0,0.0,0.0,0.0,0.0,0.0,0.0,0.0,0.0,0.0,0.0,0.0,0.0,0.0,0.0,0.0,0.0,0.0,0.0,0.0,0.0,0.0,0.0,0.0,0.0,0.0,0.0,0.0,0.0,0.0,0.0,0.0,0.0,0.0,0.0,0.0,0.0,0.0,0.0,0.0,0.0,0.0,0.0,0.0,0.0,0.0,4.6394,4.712,4.6928,4.762,4.7432,4.5744,4.5244,4.4474,4.3162,4.1089,0.0,0.0,0.0,0.0,0.0,0.0,0.0,0.0,0.0,0.0,0.0,0.0,0.0,0.0,0.0,0.0,0.0,0.0,0.0,0.0,0.0,0.0,0.0,0.0,0.0,0.0,0.0,0.0,0.0,0.0,0.0,0.0,0.0,0.0,0.0,0.0,0.0,0.0,0.0,0.0,0.0,0.0,0.0,0.0,0.0,0.0,0.0,0.0,0.0,0.0,0.0,0.0,0.0,0.0,0.0,0.0,0.0,0.0,0.0,0.0,0.0,0.0,0.0,0.0,0.0,0.0,0.0,0.0,0.0,0.0,0.0,0.0,0.0,0.0,0.0,0.0,0.0,0.0,0.0,0.0,0.0,0.0,0.0,0.0,0.0,0.0,0.0,0.0,0.0,0.0,0.0,0.0,0.0,0.0,0.0,0.0,0.0,0.0,0.0,0.0,0.0,0.0,4.6509,4.7735,4.6966,4.762,4.7432,4.5744,4.4167,4.3239,4.3124,4.0008,0.0,0.0,0.0,0.0,0.0,0.0,0.0,0.0,0.0,0.0,0.0,0.0,0.0,0.0,0.0,0.0,0.0,0.0,0.0,0.0,0.0,0.0,0.0,0.0,0.0,0.0,0.0,0.0,0.0,0.0,0.0,0.0,0.0,0.0,0.0,0.0,0.0,0.0,0.0,0.0,0.0,0.0,0.0,0.0,0.0,0.0,0.0,0.0,0.0,0.0,0.0,0.0,0.0,0.0,0.0,0.0,0.0,0.0,0.0,0.0,0.0,0.0,0.0,0.0,0.0,0.0,0.0,0.0,0.0,0.0,0.0,0.0,0.0,0.0,0.0,0.0,0.0,0.0,0.0,0.0,0.0,0.0,0.0,0.0,0.0,0.0,0.0,0.0,0.0,0.0,0.0,0.0,0.0,0.0,0.0,0.0,0.0,0.0,0.0,0.0,0.0,0.0,4.6432,4.7428,0.0,4.7928,4.7432,4.5744,4.5013,4.3974,4.2389,0.0,0.0,0.0,0.0,0.0,0.0,0.0,0.0,0.0,0.0,0.0,0.0,0.0,0.0,0.0,0.0,0.0,0.0,0.0,0.0,0.0,0.0,0.0,0.0,0.0,0.0,0.0,0.0,0.0,0.0,0.0,0.0,0.0,0.0,0.0,0.0,0.0,0.0,0.0,0.0,0.0,0.0,0.0,0.0,0.0,0.0,0.0,0.0,0.0,0.0,0.0,0.0,0.0,0.0,0.0,0.0,0.0,0.0,0.0,0.0,0.0,0.0,0.0,0.0,0.0,0.0,0.0,0.0,0.0,0.0,0.0,0.0,0.0,0.0,0.0,0.0,0.0,0.0,0.0,0.0,0.0,0.0,0.0,0.0,0.0,0.0,0.0,0.0,0.0,0.0,0.0,0.0,0.0,0.0,0.0,0.0,0.0,0.0,0.0,0.0,0.0,0.0,4.5321,4.6817,4.7889,0.0,4.8274,4.7548,4.6129,4.5282,4.3932,4.1927,0.0,0.0,0.0,0.0,0.0,0.0,0.0,0.0,0.0,0.0,0.0,0.0,0.0,0.0,0.0,0.0,0.0,0.0,0.0,0.0,0.0,0.0,0.0,0.0,0.0,0.0,0.0,0.0,0.0,0.0,0.0,0.0,0.0,0.0,0.0,0.0,0.0,0.0,0.0,0.0,0.0,0.0,0.0,0.0,0.0,0.0,0.0,0.0,0.0,0.0,0.0,0.0,0.0,0.0,0.0,0.0,0.0,0.0,0.0,0.0,0.0,0.0,0.0,0.0,0.0,0.0,0.0,0.0,0.0,0.0,0.0,0.0,0.0,0.0,0.0,0.0,0.0,0.0,0.0,0.0,0.0,0.0,0.0,0.0,0.0,0.0,0.0,0.0,0.0,0.0,0.0,0.0,0.0,0.0,0.0,0.0,0.0,0.0,0.0,0.0,0.0,0.0,4.5398,4.7822,4.9394,4.9394,4.8625,4.7774,4.6966,4.4581,4.2739,0.0,0.0,0.0,0.0,0.0,0.0,0.0,0.0,0.0,0.0,0.0,0.0,0.0,0.0,0.0,0.0,0.0,0.0,0.0,0.0,0.0,0.0,0.0,0.0,0.0,0.0,0.0,0.0,0.0,0.0,0.0,0.0,0.0,0.0,0.0,0.0,0.0,0.0,0.0,0.0,0.0,0.0,0.0,0.0,0.0,0.0,0.0,0.0,0.0,0.0,0.0,0.0,0.0,0.0,0.0,0.0,0.0,0.0,0.0,0.0,0.0,0.0,0.0,0.0,0.0,0.0,0.0,0.0,0.0,0.0,0.0,0.0,0.0,0.0,0.0,0.0,0.0,0.0,0.0,0.0,0.0,0.0,0.0,0.0,0.0,0.0,0.0,0.0,0.0,0.0,0.0,0.0,0.0,0.0,0.0,0.0,0.0,0.0,0.0,0.0,0.0,0.0,0.0,4.624,4.8202,4.9394,4.9394,4.9163,4.8432,4.7005,4.6197,4.4393,4.1089,0.0,0.0,0.0,0.0,0.0,0.0,0.0,0.0,0.0,0.0,0.0,0.0,0.0,0.0,0.0,0.0,0.0,0.0,0.0,0.0,0.0,0.0,0.0,0.0,0.0,0.0,0.0,0.0,0.0,0.0,0.0,0.0,0.0,0.0,0.0,0.0,0.0,0.0,0.0,0.0,0.0,0.0,0.0,0.0,0.0,0.0,0.0,0.0,0.0,0.0,0.0,0.0,0.0,0.0,0.0,0.0,0.0,0.0,0.0,0.0,0.0,0.0,0.0,0.0,0.0,0.0,0.0,0.0,0.0,0.0,0.0,0.0,0.0,0.0,0.0,0.0,0.0,0.0,0.0,0.0,0.0,0.0,0.0,0.0,0.0,0.0,0.0,0.0,0.0,0.0,0.0,0.0,0.0,0.0,0.0,0.0,0.0,0.0,0.0,0.0,0.0,0.0,4.662,4.8663,4.9938,4.9938,4.963,4.8856,4.7505,4.7081,4.5235,4.1281,0.0,0.0,0.0,0.0,0.0,0.0,0.0,0.0,0.0,0.0,0.0,0.0,0.0,0.0,0.0,0.0,0.0,0.0,0.0,0.0,0.0,0.0,0.0,0.0,0.0,0.0,0.0,0.0,0.0,0.0,0.0,0.0,0.0,0.0,0.0,0.0,0.0,0.0,0.0,0.0,0.0,0.0,0.0,0.0,0.0,0.0,0.0,0.0,0.0,0.0,0.0,0.0,0.0,0.0,0.0,0.0,0.0,0.0,0.0,0.0,0.0,0.0,0.0,0.0,0.0,0.0,0.0,0.0,0.0,0.0,0.0,0.0,0.0,0.0,0.0,0.0,0.0,0.0,0.0,0.0,0.0,0.0,0.0,0.0,0.0,0.0,0.0,0.0,0.0,0.0,0.0,0.0,0.0,0.0,0.0,0.0,0.0,0.0,0.0,0.0,0.0,0.0,4.6774,4.9163,5.0707,5.0707,4.9976,4.9163,4.8274,4.7466,4.5581,4.2235,0.0,0.0,0.0,0.0,0.0,0.0,0.0,0.0,0.0,0.0,0.0,0.0,0.0,0.0,0.0,0.0,0.0,0.0,0.0,0.0,0.0,0.0,0.0,0.0,0.0,0.0,0.0,0.0,0.0,0.0,0.0,0.0,0.0,0.0,0.0,0.0,0.0,0.0,0.0,0.0,0.0,0.0,0.0,0.0,0.0,0.0,0.0,0.0,0.0,0.0,0.0,0.0,0.0,0.0,0.0,0.0,0.0,0.0,0.0,0.0,4.261,0.0,0.0,0.0,0.0,0.0,0.0,0.0,0.0,0.0,0.0,0.0,0.0,0.0,0.0,0.0,0.0,0.0,0.0,0.0,0.0,0.0,0.0,0.0,0.0,0.0,0.0,0.0,0.0,0.0,0.0,0.0,0.0,0.0,0.0,0.0,0.0,0.0,0.0,0.0,0.0,0.0,4.7543,4.9514,5.0707,5.0707,5.0515,5.0053,4.9202,4.8355,4.6697,4.3932,4.3008,0.0,0.0,0.0,0.0,0.0,0.0,0.0,0.0,0.0,0.0,0.0,0.0,0.0,0.0,0.0,0.0,0.0,0.0,0.0,0.0,0.0,0.0,0.0,0.0,0.0,0.0,0.0,0.0,0.0,0.0,0.0,0.0,0.0,0.0,0.0,0.0,0.0,0.0,0.0,0.0,0.0,0.0,0.0,0.0,0.0,0.0,0.0,0.0,0.0,0.0,0.0,0.0,0.0,0.0,0.0,0.0,0.0,0.0,0.0,0.0,4.5084,0.0,0.0,0.0,0.0,0.0,0.0,0.0,0.0,0.0,0.0,0.0,0.0,0.0,0.0,0.0,0.0,0.0,0.0,0.0,0.0,0.0,0.0,0.0,0.0,0.0,0.0,0.0,0.0,0.0,0.0,0.0,0.0,0.0,0.0,0.0,0.0,0.0,0.0,0.0,0.0,4.8432,4.9899,5.0861,5.1241,5.0938,5.0361,4.9471,4.8971,4.7625,4.509,4.4128,0.0,0.0,0.0,0.0,0.0,0.0,0.0,0.0,0.0,0.0,0.0,0.0,0.0,0.0,0.0,0.0,0.0,0.0,0.0,0.0,0.0,0.0,0.0,0.0,0.0,0.0,0.0,0.0,0.0,0.0,0.0,0.0,0.0,0.0,0.0,0.0,0.0,0.0,0.0,0.0,0.0,0.0,0.0,0.0,0.0,0.0,0.0,0.0,0.0,0.0,0.0,0.0,0.0,5.1275,5.2092,5.1978,5.2866,5.3395,5.3535,5.1161,4.9879,4.9301,0.0,0.0,0.0,0.0,0.0,0.0,0.0,0.0,0.0,0.0,0.0,0.0,0.0,0.0,0.0,0.0,0.0,0.0,0.0,0.0,0.0,0.0,0.0,0.0,0.0,5.113,5.0399,0.0,0.0,0.0,0.0,0.0,0.0,0.0,0.0,0.0,0.0,0.0,0.0,4.9394,5.0515,5.1318,5.1851,5.1318,5.0553,4.9707,4.9471,4.8514,4.6398,4.5436,4.4355,0.0,0.0,0.0,0.0,0.0,0.0,0.0,0.0,0.0,0.0,0.0,0.0,0.0,0.0,0.0,0.0,0.0,0.0,0.0,0.0,0.0,0.0,0.0,0.0,0.0,0.0,0.0,0.0,0.0,0.0,0.0,0.0,4.5084,4.5304,0.0,0.0,0.0,0.0,0.0,0.0,0.0,0.0,0.0,0.0,0.0,0.0,0.0,5.0579,5.1362,5.3331,5.3913,5.322,5.5998,5.6915,5.623,5.7107,5.7509,5.7538,5.7163,0.0,5.1493,5.1262,0.0,0.0,0.0,0.0,0.0,0.0,0.0,0.0,0.0,0.0,0.0,0.0,0.0,0.0,0.0,0.0,0.0,0.0,0.0,0.0,0.0,0.0,5.2467,5.2779,5.2856,5.2933,0.0,5.0971,4.8817,4.8625,0.0,0.0,0.0,0.0,0.0,0.0,0.0,0.0,5.0322,5.1895,5.262,5.1962,5.1813,5.139,5.0592,4.9822,4.924,4.8937,4.8086,4.7505,4.7274,4.5855,0.0,0.0,0.0,0.0,0.0,0.0,0.0,0.0,0.0,0.0,0.0,0.0,0.0,0.0,0.0,0.0,0.0,0.0,0.0,0.0,0.0,0.0,0.0,0.0,0.0,0.0,0.0,0.0,0.0,4.4413,4.6103,4.5572,4.6269,4.6405,0.0,0.0,0.0,0.0,0.0,0.0,0.0,0.0,0.0,5.2855,5.3168,5.3823,5.4874,5.6254,5.6768,5.6385,5.8152,5.8781,5.8434,5.9319,5.9704,5.9704,5.9704,5.8357,5.6044,5.4626,5.3356,5.2164,0.0,0.0,0.0,0.0,5.1625,5.1702,5.2741,5.2472,0.0,5.112,0.0,0.0,0.0,0.0,0.0,0.0,0.0,0.0,0.0,0.0,0.0,5.5813,5.6082,5.6159,5.6549,5.5472,5.3818,0.0,5.1356,5.0279,4.7471,0.0,0.0,0.0,0.0,5.0697,5.1933,5.2741,5.3236,5.3351,5.2467,5.1774,5.1395,5.0625,4.9938,4.9433,4.9048,4.8625,4.812,4.7394,4.6398,0.0,0.0,0.0,0.0,0.0,0.0,0.0,0.0,0.0,0.0,0.0,0.0,0.0,0.0,0.0,0.0,0.0,0.0,0.0,0.0,0.0,0.0,0.0,0.0,0.0,0.0,0.0,0.0,4.6488,4.753,4.6711,4.7965,4.8266,0.0,0.0,0.0,0.0,0.0,0.0,5.3413,5.3337,5.4026,5.5731,5.6137,5.6827,5.7978,5.8627,5.8934,5.8934,5.955,5.9819,5.9858,6.0517,6.0787,6.0787,6.0787,6.0435,5.9665,5.7319,5.5895,5.5054,5.4164,5.3857,5.3933,5.4587,5.4549,5.4434,5.6324,5.617,5.5054,5.4626,0.0,5.2505,5.0625,0.0,0.0,0.0,0.0,5.3697,5.5818,5.6357,5.6703,5.8011,5.8313,5.8352,5.855,5.8627,5.7775,0.0,5.4857,5.4049,5.0625,0.0,0.0,0.0,0.0,5.2813,5.3433,5.3703,5.401,5.4434,5.3351,5.2467,5.2236,5.1471,5.0741,5.0087,4.9856,4.9433,4.8779,4.8548,4.7855,4.659,0.0,0.0,0.0,0.0,0.0,0.0,0.0,0.0,0.0,0.0,0.0,0.0,0.0,0.0,0.0,0.0,0.0,0.0,0.0,0.0,0.0,0.0,0.0,0.0,0.0,0.0,0.0,0.0,0.0,5.0485,5.3296,0.0,0.0,0.0,0.0,5.2992,5.3445,5.4268,5.5484,5.5963,5.7137,5.9192,5.9269,5.9692,6.0594,6.0633,6.0671,6.0671,6.0704,6.0748,6.0748,6.0787,6.0787,6.0787,6.0787,6.0787,6.0589,5.8896,5.7665,5.6786,5.5901,5.5555,5.5593,5.5631,5.6132,5.6824,5.6945,5.6945,5.7016,5.778,5.6896,5.5478,5.5362,5.4818,0.0,0.0,5.6055,5.6978,5.7934,5.8165,5.8198,5.8275,5.8313,5.8511,5.9281,5.9435,5.9165,0.0,5.7396,5.6555,5.5516,0.0,5.401,5.3082,5.378,5.4395,5.4434,5.5088,5.5285,5.4587,5.4434,5.4049,5.3197,5.2351,5.1808,5.1769,5.1048,5.0592,5.0553,4.9784,4.9279,4.9202,4.6821,0.0,0.0,0.0,0.0,0.0,0.0,0.0,0.0,0.0,0.0,0.0,0.0,0.0,0.0,0.0,0.0,0.0,0.0,0.0,0.0,0.0,0.0,0.0,0.0,0.0,0.0,0.0,0.0,5.2439,5.4166,0.0,5.2821,5.3741,5.4915,5.602,5.6974,5.7946,5.8934,5.9155,5.9571,6.0319,6.0319,6.0473,6.0787,6.0787,6.0787,6.0787,6.0787,6.0787,6.0787,6.0787,6.0787,6.0787,6.0787,6.0787,6.0748,6.0165,5.9742,5.9402,5.9094,5.8979,5.8979,5.8979,5.9171,5.944,5.944,5.9094,5.855,5.8357,5.7896,5.7357,5.7357,5.7165,5.7126,5.7934,5.8357,5.8819,5.9665,5.9896,5.9896,5.9896,5.9896,5.9973,6.0281,6.0319,6.0242,5.9973,5.9204,5.7973,5.6055,5.6395,5.6472,5.5011,5.6049,5.6934,5.6934,5.6709,5.6439,5.6132,5.5131,5.4357,5.4049,5.2736,5.1885,5.1885,5.1125,5.0707,5.0707,5.0399,4.9976,4.9394,4.8514,4.7244,0.0,0.0,0.0,0.0,0.0,0.0,0.0,0.0,0.0,0.0,0.0,0.0,0.0,0.0,0.0,0.0,0.0,0.0,0.0,0.0,0.0,0.0,0.0,0.0,0.0,0.0,5.4336,5.4216,5.5926,5.6607,5.5356,5.6624,5.81,5.9472,6.0333,6.105,6.1627,6.1627,6.1627,6.1627,6.1627,6.1627,6.1627,6.1627,6.1627,6.1627,6.1627,6.1627,6.1627,6.1627,6.1512,6.1248,6.1248,6.1056,6.0787,6.0787,6.0787,6.0787,6.0787,6.0787,6.0787,6.0787,6.0787,6.0787,6.0787,6.0435,5.9858,5.9319,5.9127,5.9127,5.9127,5.9127,5.9242,5.9781,5.9935,6.0089,6.0666,6.0787,6.0787,6.0787,6.0787,6.0787,6.0787,6.0787,6.0787,6.0787,6.0319,5.9396,5.7703,5.8396,5.8665,5.7203,5.7973,5.8627,5.8313,5.778,5.744,5.744,5.617,5.5324,5.5324,5.351,5.2467,5.2774,5.1476,5.0822,5.1087,5.0553,5.013,4.9822,4.9822,4.9014,4.7326,0.0,0.0,0.0,0.0,0.0,0.0,0.0,0.0,0.0,0.0,0.0,0.0,0.0,0.0,0.0,0.0,0.0,0.0,0.0,0.0,0.0,0.0,0.0,5.343,5.5258,5.6453,5.6056,5.8896,6.0372,5.9154,6.0936,6.248,6.3237,6.3314,6.3314,6.3314,6.3314,6.3314,6.3314,6.3314,6.3314,6.3314,6.3314,6.3314,6.3314,6.3314,6.3314,6.3314,6.3314,6.2858,6.2133,6.2133,6.1672,6.0896,6.0896,6.0896,6.0864,6.0825,6.0787,6.0787,6.0787,6.0787,6.0787,6.0787,6.0787,6.0787,6.0787,6.0787,6.0787,6.0787,6.0787,6.0787,6.0787,6.0787,6.0787,6.0787,6.0787,6.0787,6.0787,6.0787,6.0787,6.0787,6.0787,6.0787,6.0787,6.0787,6.0787,6.0787,6.0787,6.0512,5.9665,5.955,0.0,5.8467,5.8352,5.8352,5.8352,5.7555,5.7055,5.7055,5.4741,5.3626,5.4434,5.213,5.1087,5.1923,5.0394,4.9938,5.0784,5.0822,5.0822,5.0784,0.0,0.0,0.0,0.0,0.0,0.0,0.0,0.0,0.0,0.0,0.0,0.0,0.0,0.0,0.0,0.0,0.0,0.0,0.0,0.0,0.0,5.4289,5.6609,5.575,5.7683,5.9467,6.0265,6.169,6.2482,6.2132,6.2617,6.3045,6.3275,6.3314,6.3314,6.3314,6.3314,6.3314,6.3314,6.3314,6.3314,6.3314,6.3314,6.3314,6.3314,6.3314,6.3314,6.3314,6.3314,6.316,6.2974,6.2974,6.2814,6.2621,6.2621,6.2621,6.2506,6.1281,6.0787,6.0787,6.0787,6.0787,6.0787,6.0787,6.0787,6.0787,6.0787,6.0787,6.0787,6.0787,6.0787,6.0787,6.0787,6.0787,6.0787,6.0787,6.0787,6.0787,6.0787,6.0787,6.0787,6.0787,6.0787,6.0787,6.0787,6.0787,6.0787,6.0787,6.0787,6.0704,6.0473,6.0435,0.0,6.0127,5.955,5.916,5.916,5.8434,5.7934,5.7934,5.6126,5.4857,5.4511,5.2664,5.1967,5.2813,5.239,5.2587,5.3439,5.3477,5.3126,0.0,0.0,0.0,0.0,0.0,0.0,0.0,0.0,0.0,0.0,0.0,0.0,0.0,0.0,0.0,0.0,0.0,0.0,0.0,0.0,0.0,0.0,5.7206,5.9345,5.9339,6.0578,6.1773,6.2494,6.3006,6.3429,6.3814,6.4166,6.4551,6.4859,6.5237,6.5429,6.5429,6.5429,6.5429,6.5429,6.5083,6.4897,6.4897,6.4551,6.4397,6.4397,6.4397,6.4397,6.4397,6.4397,6.4199,0.0,6.3852,6.3622,6.3314,6.3314,6.3314,0.0,0.0,0.0,0.0,0.0,6.0787,6.0787,6.0787,6.0787,6.0787,6.0787,6.0787,6.0787,6.0787,6.0787,6.0787,6.0787,6.0787,6.0787,6.0787,6.0787,6.0787,6.0787,6.0787,6.0787,6.0787,6.0787,6.0787,6.0787,6.0787,0.0,6.0787,6.0787,6.0787,6.0787,6.0787,6.0787,6.0787,6.0358,6.005,6.005,5.9319,5.8819,5.8819,5.7242,0.0,0.0,0.0,5.3582,5.3741,5.4087,0.0,0.0,0.0,0.0,0.0,0.0,0.0,0.0,5.5549,5.5703,0.0,0.0,0.0,0.0,0.0,0.0,0.0,0.0,0.0,0.0,0.0,0.0,0.0,0.0,0.0,0.0,5.9683,6.1619,6.3225,6.3622,6.366,6.3468,6.3622,6.4045,6.482,6.5667,6.6474,6.7173,6.7975,6.8391,6.8391,0.0,0.0,0.0,0.0,6.725,6.725,6.6551,6.6167,6.6167,6.6167,6.6134,6.6058,6.6058,6.5551,6.4743,6.4743,6.4314,6.3583,6.3583,6.3545,6.3352,6.2557,6.2249,6.2133,6.1287,6.0941,6.0941,6.0819,0.0,0.0,6.0787,6.0787,6.0787,6.0787,6.0787,6.0787,6.0787,6.0787,6.0787,6.0787,6.0787,6.0787,6.0787,6.0787,6.0787,6.0787,6.0787,6.0787,6.0787,6.0787,6.0787,6.0787,6.0787,6.0787,6.0787,6.0787,6.0787,6.0787,6.0787,6.0787,6.0787,0.0,0.0,5.9665,5.8209,5.7555,5.8275,5.6857,5.5665,5.4972,5.5785,5.6247,5.6132,5.6978,5.8094,5.9511,5.9704,6.0204,6.0864,5.7093,5.6934,0.0,0.0,0.0,0.0,0.0,0.0,0.0,0.0,0.0,0.0,0.0,0.0,0.0,0.0,0.0,5.8703,6.1111,6.3052,6.4206,6.5513,6.5859,6.4512,6.5551,6.6442,6.6596,6.7398,6.7968,6.8122,6.8314,6.8391,6.8391,6.8391,6.8391,6.8391,6.8237,6.816,6.816,6.8007,6.793,6.793,0.0,0.0,6.6865,6.6865,6.6404,6.5628,6.5628,6.5551,6.5397,6.5397,6.4974,6.4275,6.3391,6.3083,6.2974,6.2133,6.1864,6.1749,6.1056,6.0787,6.0787,6.0787,6.0787,6.0787,6.0787,6.0787,0.0,6.0787,6.0787,6.0787,6.0787,6.0787,6.0787,6.0787,6.0787,6.0787,6.0787,6.0787,6.0787,6.0787,6.0787,6.0787,6.0787,6.0787,6.0787,6.0787,6.0787,6.0787,6.0787,6.0787,6.0787,6.0787,6.0666,6.055,6.055,5.9627,5.8819,5.8319,5.7967,5.7742,5.7582,5.9011,5.9473,5.8781,5.9627,5.9863,5.9511,6.0902,6.1672,6.1826,6.1018,6.0979,0.0,0.0,0.0,0.0,0.0,0.0,0.0,0.0,0.0,0.0,0.0,5.3865,5.5955,0.0,5.9009,6.1622,6.3413,6.4801,6.5737,6.6936,6.7282,6.6013,6.6974,6.7744,6.7744,6.8552,6.9045,6.9045,6.9436,6.9667,6.9667,6.9667,6.9667,6.9667,6.9276,6.9045,6.9045,6.8622,6.8391,6.8391,6.8391,6.816,6.7744,6.7744,6.7513,6.7167,6.7167,6.6898,6.6481,6.6058,6.5628,6.5205,6.4782,6.4083,6.3237,6.2858,6.2441,6.2056,6.1595,6.1172,6.0787,6.0787,6.0787,6.0787,6.0787,6.0787,6.0787,6.0787,6.0787,6.0787,6.0787,6.1133,6.1441,6.1441,6.1743,6.205,6.205,6.205,6.205,6.205,6.1786,6.1536,6.1536,6.1263,6.0993,6.0833,6.0787,6.0787,6.0787,6.0787,6.0787,6.0787,6.0787,6.0787,6.0787,6.0396,5.9973,5.9588,5.955,5.9777,6.0282,6.1098,6.1556,6.1551,6.1976,6.194,6.1391,6.2281,6.2704,6.2704,6.3166,6.3364,0.0,0.0,0.0,0.0,0.0,0.0,0.0,5.2354,5.3482,5.4609,5.6088,5.7889,6.0135,6.1145,6.2429,6.4816,6.5762,6.648,6.7237,6.809,6.8391,6.7705,6.8244,6.866,6.866,6.9436,6.9937,6.9937,7.0706,7.1168,7.1168,7.1168,7.1168,7.1168,7.036,6.9937,6.9937,6.9237,6.8891,6.8891,6.8891,6.8814,6.866,6.866,6.8545,6.8391,6.8237,6.7744,6.7058,6.6244,6.5904,6.5904,6.5904,6.5051,6.3775,6.3622,6.3128,6.2557,6.221,6.1633,6.1018,6.0864,6.0787,6.0787,6.0787,6.0827,6.0872,6.1032,6.0993,6.0959,6.1311,6.1774,6.2237,6.2392,6.2926,6.3384,6.3384,6.3384,6.3384,6.3384,6.2941,6.2573,6.2573,6.2009,6.1388,6.0943,6.0915,6.0899,6.0839,6.0834,6.0811,6.0793,6.0787,6.081,6.0828,6.1043,6.1152,6.1152,6.1311,6.1766,6.2555,6.2598,6.2904,6.3632,6.3632,6.3573,6.3384,6.3515,6.3602,6.3602,6.4466,6.4859,4.7195,4.903,5.0582,5.1389,5.173,5.2968,0.0,5.7703,5.796,6.0199,6.1806,6.3093,6.4123,6.4758,6.5593,6.7022,6.7361,6.76,6.8159,6.9007,6.9513,6.9436,6.9513,6.9552,6.9552,7.0283,7.0783,7.0783,7.1552,7.2059,7.2059,7.2059,7.2059,7.2059,7.1206,7.0783,7.0783,7.0667,7.0629,7.0629,7.0629,7.0244,6.9552,6.9552,6.9122,6.8353,6.759,6.7173,6.7058,6.6244,6.5904,6.5904,6.5904,6.5788,6.5513,6.4743,6.4397,6.4128,6.2633,6.2056,6.1826,6.1056,6.0787,6.0787,6.0787,6.0892,6.1159,6.1908,6.1691,6.1583,6.3074,6.2996,6.2721,6.3427,6.37,6.3738,6.3738,6.3738,6.3738,6.3738,6.3674,6.3651,6.3651,6.2998,6.2175,6.1353,6.123,6.1172,6.0988,6.0961,6.0916,6.0816,6.0787,6.0856,6.0982,6.1845,6.2407,6.2407,6.3074,6.3515,6.3612,6.3612,6.369,6.3767,6.3767,6.3758,6.3735,6.4321,6.4638,6.4634,6.5415,6.5743,5.0949,5.2003,5.259,5.4363,5.55,5.6701,5.8756,6.004,6.108,6.2095,6.3554,6.4828,6.5437,6.5991,6.6635,0.0,6.8288,6.8879,6.914,6.9475,6.9706,6.9706,6.9706,6.9898,7.036,7.0706,7.1091,7.1629,7.1982,7.2399,7.2937,7.2976,7.2976,7.2976,7.2091,7.1668,7.1668,7.1168,7.0898,7.0898,7.0898,7.0706,7.0398,7.0398,7.0206,6.9821,6.8975,6.8353,6.7901,6.7095,6.6539,6.6169,6.6169,6.6169,6.6137,6.5575,6.5095,6.4628,6.39,6.3429,6.2969,6.2112,6.1836,6.1758,6.1246,6.1112,6.1377,6.2242,6.2254,6.2346,6.348,6.3947,6.4139,6.4492,6.4956,6.5303,6.5303,6.5303,6.5303,6.5303,6.4985,6.4684,6.4684,6.407,6.3476,6.3084,6.2054,6.1262,6.119,6.1179,6.115,6.1099,6.1091,6.1322,6.1882,6.2345,6.2816,6.3286,6.36,6.4068,6.4727,6.4731,6.4963,6.5429,6.5429,6.5392,6.5303,6.5577,6.6003,6.647,6.669,6.7294,5.3041,5.4106,5.4902,5.6407,5.8168,5.96,5.982,6.1582,6.3233,6.3453,6.494,6.6211,6.6321,6.7109,6.7759,6.7939,6.9113,7.0014,7.0014,6.986,6.9783,7.0014,6.986,7.0014,7.0821,7.0898,7.1245,7.2136,7.2399,7.2937,7.3776,7.3815,7.3815,7.3815,7.3014,7.2552,7.2552,7.1937,7.1514,7.1245,7.1245,7.1129,7.0905,7.096,7.0966,7.0934,7.0177,6.9523,6.8992,6.8153,6.7394,6.674,6.674,6.6624,6.6358,6.6114,6.5707,6.5205,6.4972,6.4573,6.4025,6.3205,6.2932,6.2816,6.2187,6.2021,6.2248,6.3149,6.3214,6.3317,6.4374,6.4957,6.5303,6.5539,6.6083,6.6546,6.6546,6.6546,6.6546,6.6546,6.6101,6.5747,6.5747,6.515,6.4648,6.4648,6.3202,6.2091,6.2097,6.2018,6.1993,6.1993,6.2029,6.2325,6.2954,6.326,6.367,6.4257,6.453,6.4992,6.5789,6.5792,6.6103,6.6685,6.6919,6.6974,6.6899,6.7099,6.7509,6.8093,6.7911,6.8579,5.2464,5.4913,5.7666,5.6957,5.8609,6.0566,6.1337,6.2854,6.4273,6.5068,6.6939,6.8152,6.7393,6.8751,6.9752,6.8984,6.9972,7.086,7.086,7.0206,6.9975,7.0783,7.0167,7.0014,7.0821,7.0898,7.1245,7.2136,7.2976,7.3815,7.4623,7.4661,7.4661,7.4661,7.3892,7.3469,7.3469,7.343,7.3014,7.2175,7.2175,7.1706,7.0912,7.1114,7.1206,7.1144,7.0499,7.0162,7.0087,6.9198,6.8381,6.7642,6.7642,6.7133,6.6387,6.6377,6.6374,6.6225,6.5375,6.5067,6.4917,6.4067,6.3756,6.3756,6.3717,6.3847,6.4198,6.5058,6.4787,6.4648,6.6367,6.6211,6.5781,6.664,6.6875,6.6875,6.6875,6.6875,6.6875,6.6875,6.6875,6.6836,6.6836,6.6133,6.5547,6.5547,6.4804,6.4174,6.4012,6.3838,6.3717,6.3717,6.3908,6.404,6.404,6.495,6.5507,6.5546,6.6328,6.6836,6.6836,6.6836,6.6875,6.6875,6.7734,6.8164,6.8164,6.8797,6.9115,6.9153,6.8961,6.9315,5.539,5.6969,5.8327,5.9648,6.0603,6.141,6.2218,6.3686,6.4824,6.4567,6.5493,6.6124,6.5324,6.6234,6.722,6.7504,6.942,7.0898,7.0898,7.1168,7.1052,7.0206,7.036,0.0,7.0129,7.0591,0.0,7.2937,7.3315,7.4084,7.5476,7.5553,7.5553,7.5553,7.4738,7.4315,7.4315,7.3776,7.3353,7.3053,7.2476,7.1795,7.1114,7.1174,7.1276,7.1385,7.1145,7.0811,7.039,7.008,6.9497,6.8839,6.8839,6.8644,6.841,6.8449,6.8096,6.7466,6.6438,6.6184,6.6145,6.5287,6.4975,6.4897,6.431,6.4164,6.4407,6.5306,6.535,6.543,6.6601,6.668,6.6523,6.6836,6.6914,6.6914,6.6914,6.6914,6.6914,6.6914,6.6914,6.6914,6.6914,6.664,6.6445,6.6445,6.5234,6.4296,6.4252,6.4163,6.4115,6.4115,6.4206,6.4486,6.5032,6.5429,6.5859,6.6445,6.6758,6.6914,6.6914,6.6914,6.7187,6.7734,6.8047,6.8476,6.9062,6.9294,6.968,7.0188,7.0011,7.0392,5.7226,5.8437,5.9281,6.1153,6.1814,6.2181,6.2683,6.3857,6.464,6.3796,6.4273,6.453,6.3392,6.4288,6.5455,6.6324,6.873,7.0667,7.1283,7.186,7.1905,7.1168,7.1245,7.1283,7.1091,7.1514,0.0,7.343,7.3776,7.4546,7.5938,7.6015,7.6015,7.6015,7.5476,7.5168,7.5168,7.4661,7.4084,7.3507,7.2373,7.1614,7.1188,7.1327,7.1432,7.1575,7.1663,7.1448,7.1027,7.1027,7.0576,6.9844,6.9844,6.9687,6.9414,6.9492,6.914,6.8476,6.7524,6.7062,6.6797,6.625,6.6055,6.5976,6.539,6.5234,6.5351,6.5898,6.6055,6.6172,6.6758,6.6914,6.6914,6.6914,6.6914,6.6914,6.6914,6.7148,6.7344,6.7344,6.7344,6.7344,6.7344,6.7344,6.7265,6.6953,6.6445,6.5898,6.5312,6.5234,6.5234,6.5234,6.5234,6.5469,6.6015,6.6055,6.6289,6.6875,6.6914,6.6914,6.6914,6.7187,6.7617,6.8203,6.8789,6.9375,6.9922,7.0234,7.0664,7.1172,7.1081,7.13,5.7886,5.9281,6.0639,6.1447,6.2254,6.2793,6.2793,6.3429,6.3796,6.2903,6.3356,6.3405,6.1777,6.3019,6.4558,6.5483,6.7973,7.0321,7.1982,7.2329,7.2668,0.0,0.0,0.0,0.0,0.0,0.0,7.3546,0.0,7.5084,7.5938,7.6015,7.6015,7.6015,7.6015,7.6015,7.6015,7.6015,7.5176,7.3504,7.2009,7.127,7.1237,7.1549,7.1732,7.178,7.1948,7.2031,7.207,7.2031,7.1523,7.0781,7.0781,7.0273,6.9531,6.9609,6.957,6.9375,6.8594,6.7734,6.6953,6.6914,6.6914,6.6914,6.6914,6.6914,6.6914,6.6914,6.6914,6.6914,6.6914,6.6914,6.6914,6.6914,6.6914,6.6953,6.6953,6.7656,6.8281,6.8242,6.8242,6.8281,6.8281,6.8242,6.7969,6.7148,6.8398,6.8828,6.7187,6.6953,6.6953,6.6953,6.6914,6.6914,6.6953,6.6953,6.6992,6.7031,6.7031,6.7031,6.7031,6.7812,6.8281,6.832,6.9883,7.0703,7.0781,7.1601,7.1992,7.1992,7.1992,7.1992,5.9233,6.0529,6.1484,6.2291,6.2646,6.2793,6.2793,6.2976,6.2915,6.2071,6.1594,6.1043,6.0003,6.1313,6.3029,6.4548,6.8066,0.0,7.2059,7.3822,0.0,7.3623,0.0,7.3899,7.3546,7.4046,0.0,0.0,7.4584,7.5084,7.5938,7.6015,7.6015,7.6015,7.6015,7.6015,7.6015,7.6015,7.5225,7.3655,7.3264,7.2535,7.1568,7.1667,7.2152,7.2847,7.2265,7.2383,7.293,7.2265,7.1875,7.168,7.168,7.1523,7.1328,7.1367,7.0937,7.0351,7.0117,6.9101,6.7773,6.7109,6.6914,6.6914,6.6914,6.6914,6.6914,6.6914,6.6914,6.6914,6.6914,6.6914,6.6914,6.6914,6.7383,6.7851,6.7851,6.8555,6.914,6.9101,6.914,6.918,6.918,6.914,6.9023,6.8789,6.914,6.9023,6.8008,6.7851,6.7851,6.7851,6.7305,6.7148,6.7812,6.7851,6.8125,6.8711,6.875,6.875,6.875,6.9023,6.9453,7.0039,7.0469,7.1015,7.168,7.1875,7.1992,7.1992,7.1992,7.1992,6.0456,6.152,6.2254,6.2683,6.2536,6.2181,6.1838,6.1765,6.1325,5.9795,5.9722,5.945,5.8117,5.9793,6.2004,0.0,0.0,0.0,7.2476,7.4322,7.5361,0.0,7.5245,0.0,7.5168,7.5245,7.5284,0.0,7.5284,7.5476,7.5976,7.6015,7.6015,7.6015,7.6015,7.6015,7.6015,7.563,7.504,7.4242,7.3573,7.2914,7.2278,7.196,7.2179,7.2695,0.0,7.2265,7.2695,7.2187,7.1992,7.1992,7.1992,7.1992,7.1992,7.1992,7.168,7.1211,7.082,6.9844,6.8633,6.7734,6.7461,6.7383,6.7031,6.6914,6.6914,6.6914,6.6914,6.6914,6.6914,6.6914,6.6992,6.7383,6.7851,6.8281,6.8633,6.9414,7.0039,6.9961,7.0,6.9922,6.9531,6.9726,6.9844,6.9492,7.0078,7.0234,6.9414,6.8945,6.8711,6.8711,6.8281,6.8203,6.8672,6.8711,6.8945,6.9414,6.9453,6.9414,6.9414,6.9805,7.0234,7.0703,7.1094,7.1523,7.1992,7.1992,7.1992,7.1992,7.1992,7.1992,6.152,6.2291,6.2793,6.2793,6.2218,6.1374,6.0566,6.0236,5.9465,5.7251,5.7838,5.823,5.6516,5.8596,6.1288,6.3543,6.6451,6.9584,7.3007,7.4199,7.5284,7.6945,7.6476,7.6284,7.7061,7.6438,7.6015,7.6015,7.6015,7.6015,7.6015,7.6015,7.6015,7.6015,7.6015,7.6015,7.6015,7.5295,7.4964,7.5002,7.3601,7.296,7.3038,7.2339,7.207,7.2187,0.0,0.0,7.2148,7.2031,7.1992,7.1992,7.1992,7.1992,7.1992,7.1992,7.1992,7.1875,7.1133,7.0351,6.9492,6.8515,6.8125,6.789,6.7148,6.6914,6.6914,6.6914,6.6914,6.6914,6.6914,6.6992,6.7265,6.8008,6.8359,6.8711,6.9414,7.0273,7.0859,7.0859,7.0859,7.0625,6.9883,7.0351,7.0625,6.9922,7.1055,7.1719,7.0976,7.0117,6.957,6.957,6.9453,6.9453,6.957,6.957,6.9648,6.9805,6.9844,6.9805,6.9765,7.0469,7.0859,7.0859,7.1601,7.1992,7.1992,7.1992,7.1992,7.1992,7.1992,7.1992,6.2352,6.2683,6.2793,6.2793,6.2218,6.1374,6.0566,5.9355,5.8107,5.7031,5.6492,5.6227,5.6182,5.8108,6.0623,6.3436,6.6451,6.9584,7.3007,7.4199,7.5084,0.0,7.6092,7.6053,7.6207,7.6092,0.0,0.0,0.0,7.6015,7.6015,7.6015,7.6015,7.6015,7.6015,7.6015,7.6015,7.6005,7.5744,7.5242,7.4405,7.374,7.3201,7.2382,7.2383,7.3047,7.2305,0.0,7.3008,7.2305,7.1992,7.1992,7.1992,7.1992,7.1992,7.1992,7.1992,7.1992,7.1836,7.1211,7.0234,6.8711,6.7695,6.7109,6.6953,6.6914,6.6914,6.6914,6.6914,6.6914,6.6914,6.7422,6.8008,6.8164,6.9258,7.0312,7.043,7.1172,7.1758,7.1758,7.1758,7.1719,7.1562,7.168,7.1719,7.1601,7.1797,7.1953,7.1797,7.1015,7.0469,7.0469,6.9844,6.9687,7.039,7.0469,7.0781,7.1523,7.1562,7.1562,7.1562,7.168,7.1758,7.1758,7.1914,7.1992,7.1992,7.1992,7.1992,7.1992,7.1992,7.1992,6.2572,6.2793,6.2683,6.2291,6.1557,6.0566,5.8902,5.7923,5.6974,5.5523,5.5585,5.5865,5.5672,5.7548,5.9817,6.1955,6.4219,6.7237,7.1545,7.2476,7.3707,7.6361,7.6284,7.6169,7.663,7.6284,7.6015,0.0,0.0,7.6015,7.6015,7.6015,7.6015,7.6015,7.6015,7.6031,7.618,7.626,7.6224,7.6126,7.4901,7.4188,7.3945,7.2617,7.2226,7.2617,7.2187,0.0,7.2578,7.2187,7.1992,7.1992,7.1992,7.1992,7.1992,7.1992,7.1992,7.1992,7.1992,7.1133,6.9883,6.914,6.8281,6.75,6.7031,6.6914,6.6914,6.6914,6.6914,6.6914,6.6914,6.7539,6.832,6.8711,7.0117,7.1367,7.1367,7.1719,7.1992,7.1992,7.1992,7.1992,7.1992,7.1992,7.1992,7.1992,7.1992,7.1992,7.1992,7.164,7.1367,7.1367,7.1015,7.0937,7.1328,7.1367,7.1562,7.1953,7.1992,7.1992,7.1992,7.1992,7.1992,7.1992,7.1992,7.1992,7.1992,7.1992,7.1992,7.1992,7.1992,7.2226,6.2365,6.2683,6.2609,6.1777,6.1006,5.9782,5.7446,5.6805,5.6156,5.4317,5.4969,5.5708,5.5175,5.6861,5.8848,6.0541,6.205,6.4814,6.9937,7.0783,7.236,7.6284,7.6284,0.0,7.6938,7.6399,0.0,0.0,0.0,0.0,7.6015,7.6015,7.6012,7.6059,7.6059,7.6147,7.6379,7.6395,7.6603,7.6878,7.5179,7.4434,7.4531,7.2773,7.1992,7.1992,7.1992,0.0,0.0,7.1992,7.1992,7.1992,7.1992,7.1992,7.1992,7.1992,7.1992,7.1992,7.1992,7.0859,6.9414,6.9453,6.8789,6.7773,6.7109,6.6914,6.6914,6.6914,6.6914,6.6953,6.7148,6.7812,6.8711,6.9726,7.1015,7.1992,7.1992,7.1992,7.1992,7.1992,7.1992,7.1992,7.1992,7.1992,7.1992,7.1992,7.1992,7.1992,7.1992,7.1992,7.1992,7.1992,7.1992,7.1992,7.1992,7.1992,7.1992,7.1992,7.1992,7.1992,7.1992,7.1992,7.1992,7.1992,7.1992,7.1992,7.1992,7.1992,7.2109,7.2265,7.2265,7.2734,6.1704,6.2254,6.2609,6.1777,6.1006,5.9851,5.7798,5.6759,5.591,5.4698,5.4533,5.4752,5.504,5.5922,5.7537,6.0355,6.1595,6.398,6.909,7.0437,7.1898,7.4623,0.0,0.0,7.6092,7.6053,0.0,0.0,0.0,0.0,7.6015,7.6015,7.61,7.6289,7.625,7.639,7.6552,7.6749,7.6858,7.688,7.5301,7.457,7.4531,7.2773,7.1992,7.1992,7.1992,0.0,0.0,7.1992,7.1992,7.1992,7.1992,7.1992,7.1992,7.1992,7.1992,7.1992,7.1992,7.0859,6.9414,6.9414,6.832,6.6992,6.6914,6.6914,6.6914,6.6914,6.6914,6.707,6.789,6.8672,6.9726,7.1367,7.1875,7.1992,7.1992,7.1992,7.1992,7.1992,7.1992,7.1992,7.1992,7.1992,7.1992,7.1992,7.1992,7.1992,7.1992,7.1992,7.1992,7.1992,7.1992,7.1992,7.1992,7.1992,7.1992,7.1992,7.1992,7.1992,7.1992,7.1992,7.1992,7.1992,7.1992,7.1992,7.1992,7.1992,7.2422,7.3164,7.3164,7.3633,6.119,6.1484,6.1288,6.097,6.026,5.9071,5.684,5.6247,5.5865,5.4726,5.4686,5.4967,5.5393,5.5721,5.6727,5.8917,5.9588,6.1396,6.5974,6.7359,6.9206,7.2783,7.3976,0.0,0.0,0.0,0.0,0.0,0.0,0.0,7.6179,7.6191,7.6207,7.6289,7.6415,7.6599,7.677,7.6858,7.6944,7.7058,7.5389,7.4609,7.4531,7.2773,7.1992,7.1992,7.1992,0.0,0.0,7.1992,7.1992,7.1992,7.1992,7.1992,7.1992,7.1992,7.1992,7.1914,7.1406,7.0469,6.9375,6.8867,6.7851,6.6914,6.6914,6.6914,6.6914,6.6914,6.6914,6.7109,6.7969,6.918,7.0508,7.1719,7.1992,7.1992,7.1992,7.1992,7.1992,7.1992,7.1992,7.1992,7.1992,7.1992,7.1992,7.1992,7.1992,7.1992,7.1992,7.1992,7.1992,7.1992,7.1992,7.1992,7.1992,7.1992,7.1992,7.1992,7.1992,7.1992,7.1992,7.1992,7.1992,7.1992,7.1992,7.2265,7.2773,7.2773,7.3242,7.4062,7.4062,7.4531,6.0015,6.0456,6.0346,6.0114,5.9453,5.8334,5.6425,5.6,5.5831,5.5034,5.5094,5.5375,5.5671,5.5901,5.6555,5.805,5.8511,6.005,6.4051,6.5359,6.7289,7.1021,0.0,7.3392,0.0,0.0,0.0,0.0,0.0,0.0,0.0,7.641,7.6488,7.6484,7.6597,7.6775,7.6995,7.6995,7.6936,7.6797,7.5312,7.4453,7.418,7.2695,7.1992,7.1992,0.0,0.0,0.0,7.1992,7.1992,7.1992,7.1992,7.1992,7.1992,7.1992,7.1992,7.1875,7.1015,7.0156,6.9336,6.8476,6.7617,6.6914,6.6914,6.6914,6.6914,6.6914,6.7265,6.7773,6.8437,6.9844,7.125,7.1836,7.1992,7.1992,7.1992,7.1992,7.1992,7.1992,7.1992,7.1992,7.1992,7.1992,7.1992,7.1992,7.1992,7.1992,7.1992,7.1992,7.1992,7.1992,7.1992,7.1992,7.1992,7.1992,7.1992,7.1992,7.1992,7.1992,7.1992,7.1992,7.2109,7.2383,7.2383,7.2812,7.3672,7.3672,7.414,7.4961,7.4961,7.5469,5.7813,5.9208,6.0224,5.9416,5.8621,5.781,5.7066,5.6283,5.5716,5.5685,5.5698,5.5703,5.5708,5.6401,5.7286,5.8165,5.8973,6.0666,6.4128,6.5359,6.6859,0.0,0.0,7.1629,7.3353,0.0,0.0,0.0,0.0,0.0,0.0,7.669,7.6874,7.6874,7.6917,7.6998,7.7187,7.7187,7.6758,7.5898,7.5039,7.414,7.3281,7.2383,7.1992,0.0,0.0,0.0,0.0,7.1992,7.1992,7.1992,7.1992,7.1992,7.1992,7.1992,7.1992,7.1875,7.1015,7.0117,6.9258,6.8476,6.7617,6.6914,6.6914,6.6914,6.6914,6.6914,6.8086,6.9375,6.9453,7.0742,7.1992,7.1992,7.1992,7.1992,7.1992,7.1992,7.1992,7.1992,7.1992,7.1992,7.1992,7.1992,7.1992,7.1992,7.1992,7.1992,7.1992,7.1992,7.1992,7.1992,7.1992,7.1992,7.1992,7.1992,7.1992,7.1992,7.1992,7.1992,7.1992,7.1992,7.2422,7.3281,7.3281,7.3711,7.4609,7.4609,7.5039,7.5898,7.5898,7.6367,5.5317,5.5904,5.6323,5.6324,5.6142,5.5822,5.5312,5.5685,5.5936,5.5416,5.5992,5.6401,5.5824,5.6896,5.8357,5.9781,6.0704,6.2056,6.4282,6.6359,0.0,6.9513,7.2476,7.4591,0.0,0.0,0.0,0.0,0.0,0.0,0.0,7.6843,7.6882,7.6882,7.7048,7.7145,7.7187,7.6601,7.6172,7.5898,7.4414,7.3555,7.3281,7.2383,0.0,0.0,0.0,0.0,0.0,7.1992,7.1992,7.1992,7.1992,7.1992,7.1992,7.1992,7.1992,7.1797,7.0312,6.9648,6.918,6.7773,6.7109,6.6914,6.6914,6.6914,6.7031,6.7617,6.8164,6.8711,6.9297,7.0273,7.1094,7.1094,7.1562,7.1992,7.1992,7.1992,7.1992,7.1992,7.1992,7.1992,7.1992,7.1992,7.1992,7.1992,7.1992,7.1992,7.1992,7.1992,7.1992,7.1992,7.1992,7.1992,7.1992,7.1992,7.1992,7.1992,7.1992,7.1992,7.1992,7.1992,7.2148,7.2422,7.2422,7.3125,7.4609,7.4609,7.5351,7.6797,7.6797,7.6953,5.3004,5.3702,5.4039,5.4461,5.4531,5.4548,5.4615,5.5256,5.5744,5.539,5.5965,5.6439,5.6247,5.7357,5.8742,6.0089,6.1056,6.221,6.3852,0.0,0.0,6.9937,0.0,0.0,0.0,0.0,0.0,0.0,0.0,0.0,0.0,7.6676,7.6535,7.6535,7.6637,7.6719,7.6719,7.5859,7.539,7.539,7.3984,7.3125,7.2773,7.2265,0.0,0.0,0.0,0.0,0.0,7.1992,7.1992,7.1992,7.1992,7.1992,7.1992,7.1992,7.1992,7.1758,7.0,6.9414,6.914,6.7461,6.6914,6.6914,6.6914,6.6914,6.6992,6.7578,6.7969,6.832,6.8828,6.957,7.0273,7.0625,7.1094,7.1601,7.1914,7.1992,7.1992,7.1992,7.1992,7.1992,7.1992,7.1992,7.1992,7.1992,7.1992,7.1992,7.1992,7.1992,7.1992,7.1992,7.1992,7.1992,7.1992,7.1992,7.1992,7.1992,7.1992,7.1992,7.1992,7.1992,7.2148,7.2461,7.25,7.3359,7.5078,7.543,7.6133,7.7187,7.7187,7.7187,0.0,5.2248,5.2987,5.3404,5.3571,5.3856,5.4676,5.4975,0.0,5.561,5.5747,5.6055,5.6863,5.7742,5.8665,5.955,6.0473,0.0,0.0,6.5089,0.0,0.0,7.2689,0.0,0.0,0.0,0.0,0.0,0.0,0.0,0.0,7.6242,7.5859,7.5703,7.5703,7.5742,7.582,7.4922,7.4492,7.4492,7.3633,7.2773,7.1992,7.1992,0.0,0.0,0.0,0.0,0.0,7.1992,7.1992,7.1992,7.1992,7.1992,7.1992,7.1992,7.1953,7.168,7.0,6.9414,6.914,6.7461,6.6914,6.6914,6.6914,6.6914,6.6914,6.6992,6.7539,6.8125,6.8164,6.875,6.9531,7.039,7.0664,7.0937,7.1797,7.1992,7.1992,7.1992,7.1992,7.1992,7.1992,7.1992,7.1992,7.1992,7.1992,7.1992,7.1992,7.1992,7.1992,7.1992,7.1992,7.1992,7.1992,7.1992,7.1992,7.1992,7.1992,7.1992,7.1992,7.1992,7.2383,7.3203,7.332,7.418,7.582,7.6758,7.7187,7.7187,7.7187,7.7187,4.7513,0.0,5.0001,5.0397,5.12,5.2187,0.0,5.4134,5.4853,5.5538,5.6247,5.6747,5.6945,5.8204,5.9704,6.1248,6.2743,6.4089,6.5128,0.0,0.0,7.3469,7.488,0.0,0.0,0.0,0.0,0.0,0.0,0.0,0.0,7.5976,7.5273,7.3945,7.3906,7.4219,7.4883,7.4023,7.3594,7.3594,7.2734,7.2187,7.1992,7.1992,0.0,0.0,0.0,0.0,7.1992,7.1992,7.1992,7.1992,7.1992,7.1992,7.1992,7.1992,7.1562,7.0859,6.9844,6.9062,6.832,6.7265,6.6914,6.6914,6.6914,6.6914,6.7031,6.7695,6.7578,6.7344,6.8047,6.8359,6.8672,6.9492,7.0195,7.0937,7.1797,7.1992,7.1992,7.1992,7.1992,7.1992,7.1992,7.1992,7.1992,7.1992,7.1992,7.1992,7.1992,7.1992,7.1992,7.1992,7.1992,7.1992,7.1992,7.1992,7.1992,7.1992,7.1992,7.1992,7.1992,7.1992,7.2109,7.2305,7.3633,7.4492,7.4922,7.6445,7.7187,7.7187,7.7187,7.7187,4.5978,4.7927,4.9859,5.0248,5.1401,5.2734,5.3601,5.3857,5.4049,5.4472,5.5247,5.6093,5.6868,5.8055,5.9627,6.1749,6.2864,0.0,0.0,0.0,7.1305,7.3922,7.4756,0.0,0.0,0.0,0.0,0.0,0.0,0.0,0.0,7.4922,7.4258,7.332,7.289,7.3125,7.3984,7.3125,7.289,7.3281,7.2422,7.1992,7.1992,7.1992,7.1992,0.0,0.0,0.0,7.1992,7.1992,7.1992,7.1992,7.1992,7.1992,7.1992,7.1992,7.1445,7.0586,6.9765,6.8672,6.7539,6.7031,6.6914,6.6914,6.6914,6.6914,6.6992,6.7461,6.7265,6.6992,6.7461,6.789,6.8398,6.9219,7.0078,7.0937,7.1797,7.1992,7.1992,7.1992,7.1992,7.1992,7.1992,7.1992,7.1992,7.1992,7.1992,7.1992,7.1992,7.1992,7.1992,7.1992,7.1992,7.1992,7.1992,7.1992,7.1992,7.1992,7.1992,7.1992,7.1992,7.1992,7.1992,7.1992,7.3711,7.4609,7.4609,7.6367,7.7187,7.7187,7.7187,7.7187,4.5697,4.8579,5.1127,5.0945,5.238,5.3866,5.4227,5.3741,5.3274,5.3549,5.4164,5.5208,5.6901,5.7896,5.9281,6.171,0.0,0.0,6.8045,6.9367,7.0817,7.3236,0.0,0.0,0.0,0.0,0.0,0.0,0.0,0.0,0.0,7.3711,7.3242,7.3125,7.2383,7.2344,7.3086,7.2383,7.2383,7.3086,7.2344,7.1992,7.1992,7.1992,7.1992,0.0,0.0,0.0,7.1992,7.1992,7.1992,7.1992,7.1992,7.1992,7.1992,7.1992,7.1367,7.039,6.9414,6.8125,6.6914,6.6914,6.6914,6.6914,6.6914,6.6914,6.6914,6.6914,6.6914,6.6914,6.6914,6.7539,6.8398,6.9219,7.0078,7.0937,7.1797,7.1992,7.1992,7.1992,7.1992,7.1992,7.1992,7.1992,7.1992,7.1992,7.1992,7.1992,7.1992,7.1992,7.1953,7.1836,7.1914,7.1953,7.1797,7.1914,7.1992,7.1992,7.1992,7.1992,7.1992,7.1992,7.1992,7.1992,7.3594,7.4453,7.4609,7.6211,7.707,7.7187,7.7187,7.7187,4.6818,5.0029,5.222,4.9778,5.1266,5.3304,5.3385,5.3313,5.3587,5.5011,5.5439,5.6049,5.778,5.8781,5.9935,6.1787,0.0,6.6288,0.0,0.0,7.1401,0.0,0.0,0.0,0.0,0.0,0.0,0.0,0.0,0.0,0.0,7.3359,7.2969,7.2226,7.207,7.207,7.2187,7.207,7.207,7.2187,7.207,7.1992,7.1992,7.1992,7.1992,0.0,0.0,7.1992,7.1992,7.1992,7.1992,7.1992,7.1992,7.1992,7.1992,7.1992,7.1015,6.9453,6.7851,6.7109,6.6914,6.6914,6.6914,6.6914,6.6914,6.6914,6.6914,6.6914,6.6914,6.6914,6.6914,6.7539,6.8398,6.9219,7.0078,7.0937,7.1797,7.1992,7.1992,7.1992,7.1992,7.1992,7.1992,7.1992,7.1992,7.1992,7.1992,7.1992,7.1992,7.1992,7.1719,7.0976,7.1562,7.1719,7.0976,7.1562,7.1992,7.1992,7.1992,7.1992,7.1992,7.1992,7.1992,7.1992,7.3008,7.3867,7.4609,7.5625,7.6484,7.7187,7.7187,7.7187,4.6235,4.9124,5.1523,5.0166,5.2916,5.5967,5.5967,5.5241,5.478,5.5555,5.6055,5.6786,5.8088,5.9358,6.105,6.3711,0.0,6.7314,6.9488,0.0,0.0,0.0,0.0,0.0,0.0,0.0,0.0,0.0,0.0,0.0,0.0,0.0,7.2422,7.1992,7.1992,7.1992,7.1992,7.1992,7.1992,7.1992,7.1992,7.1992,7.1992,7.1992,7.1992,7.1992,0.0,7.1992,7.1992,7.1992,7.1992,7.1992,7.1992,7.1992,7.1875,7.0976,6.9844,6.8633,6.7344,6.6914,6.6914,6.6914,6.6914,6.6914,6.6914,6.6914,6.6914,6.6914,6.6914,6.6914,6.6914,6.7539,6.8398,6.9219,7.0078,7.0937,7.1797,7.1992,7.1992,7.1992,7.1992,7.1992,7.1992,7.1992,7.1992,7.1992,7.1992,7.1992,7.1992,7.1992,7.1836,7.1445,7.1758,7.1836,7.1445,7.1758,7.1992,7.1992,7.1992,7.1992,7.1992,7.1992,7.1992,7.1992,7.332,7.4219,7.4609,7.5937,7.6797,7.7187,7.7187,7.7187,4.5984,4.8399,5.0784,5.1207,5.4203,5.728,5.7857,5.6665,5.5593,5.6203,5.6824,5.7555,5.8434,6.0127,0.0,6.5404,6.675,6.798,0.0,0.0,0.0,0.0,0.0,0.0,0.0,0.0,0.0,0.0,0.0,0.0,0.0,0.0,7.1992,7.1992,7.1992,7.1992,7.1992,7.1992,7.1992,7.1992,7.1992,7.1992,7.1992,7.1992,7.1992,7.1992,7.1992,7.1992,7.1992,7.1992,7.1992,7.1992,7.1797,7.1562,7.1211,6.9726,6.8789,6.8086,6.7187,6.6914,6.6914,6.6914,6.6914,6.6914,6.6914,6.6914,6.6914,6.6914,6.6914,6.6914,6.6914,6.7539,6.8359,6.8984,6.9765,7.0625,7.1523,7.1719,7.1758,7.1953,7.1992,7.1992,7.1992,7.1992,7.1992,7.1992,7.1992,7.1992,7.1992,7.1836,7.1719,7.1719,7.1523,7.1484,7.168,7.1875,7.1992,7.1992,7.1992,7.1992,7.1992,7.1992,7.1992,7.1992,7.3515,7.4414,7.4609,7.6133,7.6992,7.7187,7.7187,7.7187,4.7405,4.9279,5.1053,5.2626,5.3313,5.4203,5.6555,5.5785,5.5241,5.7627,5.8165,5.8434,5.9281,6.1429,6.3737,6.559,6.7244,6.8667,0.0,0.0,0.0,0.0,0.0,0.0,0.0,0.0,0.0,0.0,0.0,0.0,0.0,0.0,0.0,7.1992,7.1992,7.1992,7.1992,7.1992,7.1992,7.1992,7.1992,7.1992,7.1992,7.1992,7.1992,7.1992,7.1992,7.1992,7.1992,7.1992,7.1992,7.1914,7.1094,7.0312,6.9492,6.8594,6.8242,6.8086,6.7187,6.6914,6.6914,6.6914,6.6914,6.6914,6.6914,6.6914,6.6914,6.6914,6.6914,6.6914,6.6914,6.7539,6.8203,6.8281,6.8906,6.9726,7.0625,7.0781,7.1015,7.1836,7.1992,7.1992,7.1992,7.1992,7.1992,7.1992,7.1992,7.1992,7.1992,7.1289,7.0781,7.0781,7.0117,6.9961,7.0742,7.1523,7.1992,7.1992,7.1992,7.1992,7.1992,7.1992,7.1992,7.1992,7.293,7.3789,7.4609,7.5547,7.6406,7.7187,7.7187,7.7187,4.6333,4.8591,5.0976,5.212,5.3197,5.4664,5.7242,5.8127,5.8819,6.0364,6.0671,6.0748,6.1056,0.0,6.3852,6.5628,6.6954,0.0,0.0,0.0,0.0,0.0,0.0,0.0,0.0,0.0,0.0,0.0,0.0,0.0,0.0,0.0,0.0,7.1992,7.1992,7.1992,7.1992,7.1992,7.1992,7.1992,7.1992,7.1992,7.1992,7.1992,7.1992,7.1992,7.1992,7.1992,7.1953,7.1406,7.1172,7.1094,7.0273,6.9414,6.8633,6.832,6.7851,6.7344,6.6992,6.6914,6.6914,6.6914,6.6914,6.6914,6.6914,6.6914,6.6914,6.6914,6.6914,6.6914,6.6914,6.7148,6.7539,6.8086,6.8437,6.8867,6.9726,6.9883,7.0156,7.1015,7.0781,7.0781,7.1836,7.1562,7.1367,7.1914,7.1992,7.1992,7.1992,7.1719,7.1289,7.0742,7.043,7.0351,7.0664,7.1484,7.1992,7.1992,7.1992,7.1992,7.1992,7.1992,7.1992,7.1992,7.3398,7.4258,7.4609,7.6015,7.6875,7.7187,7.7187,7.7187,4.6321,4.8283,5.063,5.1967,5.339,5.5164,5.7703,5.8973,6.0089,6.1749,6.2095,6.2095,6.2095,6.2743,0.0,0.0,0.0,0.0,0.0,0.0,0.0,0.0,0.0,0.0,0.0,0.0,0.0,0.0,0.0,0.0,0.0,0.0,0.0,0.0,7.1992,7.1992,7.1992,7.1719,7.1601,7.1601,7.1328,7.1484,7.1992,7.1719,7.1601,7.1601,7.1601,7.1601,7.1523,7.0937,7.039,6.9844,6.9297,6.8555,6.7773,6.7773,6.7422,6.6914,6.6914,6.6914,6.6914,6.6914,6.6914,6.6914,6.6914,6.6914,6.6914,6.6914,6.6914,6.6914,6.6914,6.6914,6.7031,6.7656,6.7773,6.8008,6.8828,6.9023,6.9258,7.0117,6.9844,6.9844,7.0976,7.0703,7.0508,7.1094,7.1211,7.1211,7.1172,7.0976,7.0469,6.9609,7.0234,7.0586,7.0312,7.1328,7.1992,7.1992,7.1992,7.1992,7.1992,7.1992,7.1992,7.1992,7.3437,7.4336,7.4609,7.6055,7.6914,7.7187,7.7187,7.7187,4.7851,4.874,5.001,5.2549,5.3857,5.5203,5.7736,5.7659,5.8006,6.1402,6.2095,6.2095,6.2095,6.2743,0.0,0.0,0.0,0.0,0.0,0.0,0.0,0.0,0.0,0.0,0.0,0.0,0.0,0.0,0.0,0.0,0.0,0.0,0.0,0.0,7.1992,7.1992,7.1992,7.1133,7.0703,7.0664,6.9805,7.0312,7.1953,7.1094,7.0703,7.0703,7.0703,7.0703,7.0703,7.0664,6.9687,6.8203,6.8203,6.7656,6.6914,6.6914,6.6914,6.6914,6.6914,6.6914,6.6914,6.6914,6.6914,6.6914,6.6914,6.6914,6.6914,6.6914,6.6914,6.6914,6.6914,6.6914,6.6914,6.6914,6.6914,6.7148,6.8008,6.8203,6.8437,6.9219,6.9375,6.9375,6.9414,6.9453,6.9453,6.9414,6.9453,6.9492,6.9414,6.8711,6.7851,6.7031,6.918,7.0312,6.9492,7.0976,7.1992,7.1992,7.1992,7.1992,7.1992,7.1992,7.1992,7.1992,7.2851,7.3711,7.4609,7.5469,7.6328,7.7187,7.7187,7.7187,4.6432,4.8283,5.063,5.1967,5.428,5.6786,5.8704,5.9435,6.0127,6.1749,6.2095,6.1903,6.1287,6.2358,0.0,0.0,0.0,0.0,0.0,0.0,0.0,0.0,0.0,0.0,0.0,0.0,0.0,0.0,0.0,0.0,0.0,0.0,0.0,0.0,7.0195,7.0156,7.0156,6.9961,6.9844,6.9844,6.9609,6.9726,7.0156,6.9961,6.9844,6.9844,6.9805,6.9805,6.9805,6.918,6.8281,6.7305,6.7305,6.7148,6.6914,6.6914,6.6914,6.6914,6.6914,6.6914,6.6914,6.6914,6.6914,6.6914,6.6914,6.6914,6.6914,6.6914,6.6914,6.6914,6.6914,6.6914,6.6914,6.6914,6.6914,6.6953,6.7226,6.7305,6.7539,6.8398,6.8047,6.8047,6.9258,6.8984,6.8789,6.9336,6.9453,6.9492,6.9453,6.8711,6.8359,6.8672,6.8867,6.9297,7.0234,7.0781,7.1367,7.1953,7.1992,7.1992,7.1992,7.1992,7.1992,7.1992,7.2851,7.3437,7.3672,7.5195,7.6015,7.6289,7.6914,7.7187,4.7971,4.9856,5.2125,5.3967,5.5972,5.7978,5.9627,6.071,6.1479,6.1979,6.2095,6.1941,6.1402,6.2127,0.0,0.0,0.0,0.0,0.0,0.0,0.0,0.0,0.0,0.0,0.0,0.0,0.0,0.0,0.0,0.0,0.0,0.0,0.0,0.0,6.9414,6.9414,6.9453,6.914,6.8984,6.8984,6.8633,6.8437,6.8437,6.8828,6.8984,6.8984,6.8945,6.8945,6.8945,6.8437,6.7695,6.6914,6.6914,6.6914,6.6914,6.6914,6.6914,6.6914,6.6914,6.6914,6.6914,6.6914,6.6914,6.6914,6.6914,6.6914,6.6914,6.6914,6.6914,6.6914,6.6914,6.6914,6.6914,6.6914,6.6914,6.6914,6.6914,6.6914,6.707,6.7578,6.7265,6.7226,6.8281,6.8047,6.7851,6.832,6.8437,6.8476,6.8476,6.8008,6.789,6.8398,6.8594,6.9101,7.0117,7.082,7.1445,7.1953,7.1992,7.1992,7.1992,7.1992,7.1992,7.1992,7.2539,7.2969,7.3281,7.4336,7.5039,7.539,7.6289,7.668,5.0928,5.2313,5.389,5.7236,5.8313,5.8934,6.0441,6.1402,6.1979,6.1979,6.1979,6.1979,6.1979,6.2056,0.0,0.0,0.0,0.0,0.0,0.0,0.0,0.0,0.0,0.0,0.0,0.0,0.0,0.0,0.0,0.0,0.0,0.0,0.0,6.918,6.918,6.9219,6.9258,6.8476,6.8086,0.0,6.7265,6.6914,6.6914,6.7734,6.8086,6.8086,6.8086,6.8086,6.8086,6.8086,6.7617,6.6914,6.6914,6.6914,6.6914,6.6914,6.6914,6.6914,6.6914,6.6914,6.6914,6.6914,6.6914,6.6914,6.6914,6.6914,6.6914,6.6914,6.6914,6.6914,6.6914,6.6914,6.6914,6.6914,6.6914,6.6914,6.6914,6.6914,6.6914,6.6914,6.6914,6.6914,6.6914,6.6914,6.6914,6.6914,6.6914,6.6914,6.6914,6.6914,6.6914,6.6992,6.832,6.9258,6.9492,7.0898,7.1836,7.1992,7.1992,7.1992,7.1992,7.1992,7.1992,7.1992,7.1992,7.2383,7.3164,7.3242,7.3711,7.4492,7.539,7.5781,4.8774,5.0505,5.2851,5.5588,5.828,6.0358,6.0704,6.0941,6.1095,6.1095,6.1095,6.1095,6.1095,0.0,0.0,0.0,0.0,0.0,0.0,0.0,0.0,0.0,0.0,0.0,0.0,0.0,0.0,0.0,0.0,0.0,0.0,0.0,0.0,6.7422,6.7422,6.7422,6.7461,6.7265,6.7187,0.0,6.6992,6.6914,6.6914,6.7109,6.7187,6.7187,6.7187,6.7187,6.7187,6.7187,6.707,6.6914,6.6914,6.6914,6.6914,6.6914,6.6914,6.6914,6.6914,6.6914,6.6914,6.6914,6.6914,6.6914,6.6914,6.6914,6.6914,6.6914,6.6914,6.6914,6.6914,6.6914,6.6914,6.6914,6.6914,6.6914,6.6914,6.6914,6.6914,6.6914,6.6914,6.6914,6.6914,6.6914,6.6914,6.6914,6.6914,6.6914,6.6914,6.6914,6.7148,6.7851,6.7617,6.8242,7.0234,7.0156,7.0547,7.1914,7.1992,7.1992,7.1992,7.1992,7.1992,7.1992,7.1992,7.2109,7.2265,7.2969,7.3398,7.3594,7.4453,7.4883,4.9009,5.0894,5.3313,5.6665,5.9165,6.0787,6.0787,6.0787,6.0787,6.0787,6.0787,6.0787,6.0787,0.0,0.0,0.0,0.0,0.0,0.0,0.0,0.0,0.0,0.0,0.0,0.0,0.0,0.0,0.0,0.0,0.0,0.0,6.6914,6.6914,6.6914,6.6914,6.6914,6.6914,6.6914,6.6914,6.6914,6.6914,6.6914,6.6914,6.6914,6.6914,6.6914,6.6914,6.6914,6.6914,6.6914,6.6914,6.6914,6.6914,6.6914,6.6914,6.6914,6.6914,6.6914,6.6914,6.6914,6.6914,6.6914,6.6914,6.6914,6.6914,6.6914,6.6914,6.6914,6.6914,6.6914,6.6914,6.6914,6.6914,6.6914,6.6914,6.6914,6.6914,6.6914,6.6914,6.6914,6.6914,6.6914,6.6914,6.6914,6.6914,6.6914,6.6914,6.6914,6.6914,6.6914,6.707,6.7539,6.7539,6.8203,6.9922,7.0039,7.0586,7.1914,7.1992,7.1992,7.1992,7.1992,7.1992,7.1992,7.1992,7.1992,7.1992,7.2461,7.2695,7.2695,7.3555,7.3984,4.963,5.1895,5.4587,5.8511,6.0165,6.0787,6.0787,6.0787,6.0787,6.0787,6.0787,6.0787,0.0,0.0,0.0,0.0,0.0,0.0,0.0,0.0,0.0,0.0,0.0,0.0,0.0,0.0,0.0,0.0,0.0,0.0,6.668,6.668,6.6758,6.6914,6.6914,6.6914,6.6914,6.6914,6.6914,6.6914,6.6914,6.6914,6.6914,6.6914,6.6914,6.6914,6.6914,6.6914,6.6914,6.6914,6.6914,6.6914,6.6914,6.6914,6.6914,6.6914,6.6914,6.6914,6.6914,6.6914,6.6914,6.6914,6.6914,6.6914,6.6914,6.6914,6.6914,6.6914,6.6914,6.6914,6.6914,6.6914,6.6914,6.6914,6.6914,6.6914,6.6914,6.6914,6.6914,6.6914,6.6914,6.6914,6.6914,6.6914,6.6914,6.6914,6.6914,6.6914,6.6914,6.6914,6.6914,6.6914,6.7539,6.832,6.9101,7.0,7.0859,7.1719,7.1914,7.1992,7.1992,7.1992,7.1992,7.1992,7.1992,7.1992,7.1992,7.1992,7.1992,7.2031,7.2734,7.3086,4.8163,5.1818,5.6011,5.8819,6.0165,6.0787,6.0787,6.0787,6.0787,0.0,6.0787,0.0,0.0,0.0,0.0,0.0,0.0,0.0,0.0,0.0,0.0,0.0,0.0,0.0,0.0,0.0,0.0,0.0,0.0,0.0,6.5742,6.5781,6.6133,6.6875,6.6914,6.6914,6.6914,6.6914,6.6914,6.6914,6.6914,6.6914,6.6914,6.6914,6.6914,6.6914,6.6914,6.6914,6.6914,6.6914,6.6914,6.6914,6.6914,6.6914,6.6914,6.6914,6.6914,6.6914,6.6914,6.6914,6.6914,6.6914,6.6914,6.6914,6.6914,6.6914,6.6914,6.6914,6.6914,6.6914,6.6914,6.6914,6.6914,6.6914,6.6914,6.6914,6.6914,6.6914,6.6914,6.6914,6.6914,6.6914,6.6914,6.6914,6.6914,6.6914,6.6914,6.6914,6.6914,6.6914,6.6914,6.6914,6.6992,6.7422,6.8281,6.914,7.0,7.082,7.1562,7.1992,7.1992,7.1992,7.1992,7.1992,7.1992,7.1992,7.1992,7.1992,7.1992,7.1992,7.2109,7.2187,4.8933,5.1895,5.5049,5.8088,5.9435,6.0204,6.071,6.0787,6.0787,6.0787,0.0,0.0,0.0,0.0,0.0,0.0,0.0,0.0,0.0,0.0,0.0,0.0,0.0,0.0,0.0,0.0,0.0,0.0,0.0,6.4453,6.4844,6.4883,6.5039,6.543,6.5937,6.6172,6.6172,6.6172,6.6172,6.6172,6.668,6.6914,6.6914,6.6914,6.6914,6.6914,6.6914,6.6914,6.6914,6.6914,6.6914,6.6914,6.6914,6.6914,6.6914,6.6914,6.6914,6.6914,6.6914,6.6914,6.6914,6.6914,6.6914,6.6914,6.6914,6.6914,6.6914,6.6914,6.6914,6.6914,6.6914,6.6914,6.6914,6.6914,6.6914,6.6914,6.6914,6.6914,6.6914,6.6914,6.6914,6.6914,6.6914,6.6914,6.6914,6.6914,6.6914,6.6914,6.6914,6.6914,6.6914,6.6914,6.6914,6.7265,6.8125,6.8555,6.9101,6.9922,7.0351,7.0586,7.0586,7.1015,7.1289,7.1289,7.1758,7.1992,7.1992,7.1992,7.1992,7.1992,7.1992,7.1992,4.9245,5.1279,5.3318,5.6549,5.8127,5.9165,6.0204,0.0,6.0512,0.0,0.0,0.0,0.0,0.0,0.0,0.0,0.0,0.0,0.0,0.0,0.0,0.0,0.0,0.0,0.0,0.0,0.0,0.0,0.0,6.375,6.3945,6.3984,6.4062,6.4297,6.4922,6.5273,6.5273,6.5273,6.5273,6.5273,6.5937,6.625,6.625,6.625,6.6367,6.6562,6.6797,6.6914,6.6914,6.6914,6.6914,6.6914,6.6914,6.6914,6.6914,6.6914,6.6914,6.6914,6.6914,6.6914,6.6914,6.6914,6.6914,6.6914,6.6914,6.6914,6.6914,6.6914,6.6914,6.6914,6.6914,6.6758,6.6562,6.6562,6.6562,6.664,6.6836,6.6914,6.6914,6.6914,6.6914,6.6914,6.6914,6.6914,6.6914,6.6914,6.6914,6.6914,6.6914,6.6914,6.6914,6.6914,6.6914,6.7148,6.7812,6.8086,6.8476,6.9062,6.9336,6.9492,6.9492,7.0078,7.0351,7.0351,7.1015,7.1562,7.1992,7.1992,7.1992,7.1992,7.1992,7.1992,4.7778,4.951,5.1438,5.4049,5.5939,5.7555,0.0,0.0,0.0,0.0,0.0,0.0,0.0,0.0,0.0,0.0,0.0,0.0,0.0,0.0,0.0,0.0,0.0,0.0,0.0,0.0,0.0,0.0,0.0,6.2187,6.3008,6.3086,6.3437,6.4258,6.4336,6.4375,6.4375,6.4375,6.4375,6.4375,6.4414,6.4453,6.4453,6.4453,6.4883,6.5703,6.6523,6.6914,6.6914,6.6914,6.6914,6.6914,6.6914,6.6914,6.6914,6.6914,6.6914,6.6914,6.6914,6.6914,6.6914,6.6914,6.6914,6.6914,6.6914,6.6914,6.6914,6.6914,6.6914,6.6914,6.6914,6.6289,6.5664,6.5664,6.5664,6.5898,6.6719,6.6914,6.6914,6.6914,6.6914,6.6914,6.6914,6.6914,6.6914,6.6914,6.6914,6.6914,6.6914,6.6914,6.6914,6.6914,6.6914,6.6914,6.6953,6.7734,6.8203,6.8242,6.8984,6.9414,6.9492,6.9492,6.9453,6.9453,6.957,7.039,7.1992,7.1992,7.1992,7.1992,7.1992,7.1992,4.7509,4.8548,4.9625,5.2197,5.4126,5.5708,5.6824,5.8319,5.9588,0.0,0.0,0.0,0.0,0.0,0.0,0.0,0.0,0.0,0.0,0.0,0.0,0.0,0.0,0.0,0.0,0.0,0.0,0.0,0.0,0.0,6.2148,6.2187,6.2305,6.2617,6.3164,6.3476,6.3476,6.4023,6.4023,6.3476,6.4023,6.4297,6.4297,6.4297,6.4453,6.4765,6.5117,6.5859,6.6914,6.6914,6.6914,6.6914,6.6914,6.6914,6.6914,6.6914,6.6562,6.6055,6.6055,6.5703,6.5234,6.5234,6.5234,6.5234,6.5234,6.5234,6.5234,6.5234,6.5234,6.5234,6.5234,6.5,6.4765,6.4765,6.5195,6.5703,6.6015,6.6523,6.6914,6.6914,6.6914,6.6914,6.6914,6.6914,6.6914,6.6914,6.6914,6.6914,6.6914,6.6914,6.6914,6.6914,6.6914,6.6914,6.6914,6.7187,6.7383,6.7383,6.7656,6.7812,6.7812,6.8359,6.8633,6.8633,6.9219,7.0039,7.1172,7.1172,7.1445,7.1992,7.1992,7.1719,4.6355,4.7235,4.8312,5.0851,5.2164,5.3395,5.5631,0.0,5.805,0.0,0.0,0.0,0.0,0.0,0.0,0.0,0.0,0.0,0.0,0.0,0.0,0.0,0.0,0.0,0.0,0.0,0.0,0.0,0.0,0.0,6.1719,6.1719,6.1719,6.1719,6.2265,6.2578,6.2578,6.3125,6.3125,6.2578,6.3164,6.3437,6.3437,6.3437,6.3594,6.3867,6.3867,6.4687,6.6015,6.6015,6.6211,6.6445,6.6445,6.6445,6.6445,6.6445,6.5898,6.5156,6.5156,6.4765,6.4297,6.4297,6.4297,6.4297,6.4297,6.4297,6.4297,6.4297,6.4297,6.4297,6.4297,6.4062,6.3867,6.3867,6.4297,6.4805,6.5117,6.6094,6.6914,6.6914,6.6914,6.6914,6.6914,6.6914,6.6914,6.6914,6.6914,6.6914,6.6914,6.6914,6.6914,6.6914,6.6914,6.6914,6.6914,6.6914,6.6914,6.6914,6.6914,6.6914,6.6914,6.7461,6.7773,6.7773,6.832,6.9023,6.9844,7.0156,7.0586,7.1172,7.1133,7.082,0.0,0.0,0.0,0.0,0.0,0.0,5.5593,0.0,5.5126,0.0,0.0,0.0,0.0,0.0,0.0,0.0,0.0,0.0,0.0,0.0,0.0,0.0,0.0,0.0,0.0,0.0,0.0,0.0,0.0,6.1719,6.1719,6.1719,6.1719,6.1719,6.1719,6.1719,6.1719,6.1719,6.1719,6.1719,6.1719,6.1719,6.1719,6.1719,6.2148,6.2969,6.2969,6.3437,6.4219,6.4297,6.4805,6.5547,6.5547,6.5547,6.5547,6.5547,6.5,6.4258,6.4258,6.4258,6.4219,6.4219,6.4219,6.4219,6.4219,6.4219,6.4219,6.4219,6.4219,6.4219,6.4219,6.3594,6.2969,6.2969,6.2969,6.3242,6.4062,6.5625,6.6836,6.6836,6.6875,6.6875,6.6875,6.6875,6.6914,6.6914,6.6914,6.6914,6.6914,6.6914,6.6914,6.6914,6.6914,6.6914,6.6914,6.6914,6.6914,6.6914,6.6914,6.6914,6.6914,6.6914,6.6914,6.6914,6.6914,6.7305,6.8164,6.9023,6.9453,6.9492,6.9414,6.9375,4.4124,0.0,0.0,0.0,0.0,0.0,0.0,0.0,0.0,0.0,0.0,0.0,0.0,0.0,0.0,0.0,0.0,0.0,0.0,0.0,0.0,0.0,0.0,0.0,0.0,0.0,0.0,0.0,6.1719,6.1719,6.1719,6.1719,6.1719,6.1719,6.1719,6.1719,6.1719,6.1719,6.1719,6.1719,6.1719,6.1719,6.1719,6.1719,6.1836,6.207,6.207,6.2187,6.2539,6.3789,6.4453,6.4648,6.4648,6.4648,6.4648,6.4648,6.4101,6.3359,6.3359,6.2969,6.2422,6.2422,6.2422,6.2422,6.2422,6.2422,6.2422,6.2422,6.2422,6.2422,6.2422,6.2226,6.207,6.207,6.2539,6.3086,6.332,6.4219,6.5039,6.5039,6.6055,6.6719,6.6055,6.6484,6.6914,6.6914,6.6914,6.6914,6.6914,6.6914,6.6914,6.6914,6.6914,6.6914,6.6914,6.6914,6.6914,6.6914,6.6914,6.6914,6.6914,6.6914,6.6914,6.6914,6.6914,6.7031,6.7265,6.8125,6.8867,6.9414,6.8828,6.8828,0.0,0.0,0.0,0.0,0.0,0.0,0.0,5.0274,0.0,0.0,0.0,0.0,0.0,0.0,0.0,0.0,0.0,0.0,0.0,0.0,0.0,0.0,0.0,0.0,0.0,0.0,0.0,6.1719,6.1719,6.1719,6.1719,6.1719,6.1719,6.1719,6.1719,6.1719,6.1719,6.1719,6.1719,6.1719,6.1719,6.1719,6.1719,6.1719,6.1719,6.1719,6.1719,6.1719,6.1797,6.2812,6.3437,6.375,6.375,6.375,6.375,6.375,6.3203,6.2461,6.2461,6.2148,6.1719,6.1719,6.1719,6.1719,6.1719,6.1719,6.1719,6.1719,6.1719,6.1719,6.1719,6.1719,6.1719,6.1719,6.2109,6.2461,6.2461,6.3125,6.3867,6.4219,6.5117,6.5664,6.5156,6.5781,6.6367,6.6367,6.668,6.6914,6.6914,6.6914,6.6914,6.6914,6.6914,6.6914,6.6914,6.6914,6.6914,6.6914,6.6914,6.6914,6.6914,6.6914,6.6914,6.6914,6.6914,6.6914,6.6914,6.7422,6.789,6.8359,6.789,6.789,4.4321,4.5013,0.0,0.0,0.0,0.0,5.0428,5.0197,4.9931,0.0,0.0,0.0,0.0,0.0,0.0,0.0,0.0,0.0,0.0,0.0,0.0,0.0,0.0,0.0,0.0,6.1719,6.1719,6.1719,6.1719,6.1719,6.1719,6.1719,6.1719,6.1719,6.1719,6.1719,6.1719,6.1719,6.1719,6.1719,6.1719,6.1719,6.1719,6.1719,6.1719,6.1719,6.1719,6.1719,6.1719,6.1719,6.2148,6.2851,6.2851,6.2851,6.2851,6.2851,6.2383,6.1719,6.1719,6.1719,6.1719,6.1719,6.1719,6.1719,6.1719,6.1719,6.1719,6.1719,6.1719,6.1719,6.1719,6.1719,6.1719,6.1719,6.1719,6.1719,6.1719,6.2305,6.3086,6.3867,6.418,6.4258,6.418,6.4883,6.5508,6.5586,6.625,6.6797,6.6875,6.6914,6.6875,6.6758,6.6758,6.6719,6.6601,6.6719,6.6758,6.6758,6.6836,6.6914,6.6914,6.6914,6.6914,6.6914,6.6914,6.6914,6.6914,6.6914,6.6914,6.6914,6.6914,6.6914,4.4474,4.5432,4.6547,4.6167,0.0,0.0,4.7129,4.7625,4.8535,0.0,0.0,0.0,0.0,0.0,0.0,0.0,0.0,0.0,0.0,0.0,0.0,0.0,0.0,0.0,0.0,6.1719,6.1719,6.1719,6.1719,6.1719,6.1719,6.1719,6.1719,6.1719,6.1719,6.1719,6.1719,6.1719,6.1719,6.1719,6.1719,6.1719,6.1719,6.1719,6.1719,6.1719,6.1719,6.1719,6.1719,6.1719,6.1797,6.1953,6.1953,6.1953,6.1953,6.1953,6.1836,6.1719,6.1719,6.1719,6.1719,6.1719,6.1719,6.1719,6.1719,6.1719,6.1719,6.1719,6.1719,6.1719,6.1719,6.1719,6.1719,6.1719,6.1719,6.1719,6.1719,6.1836,6.1992,6.2187,6.3359,6.4062,6.3359,6.3984,6.4805,6.5508,6.5742,6.6094,6.6797,6.6914,6.664,6.5937,6.5859,6.5586,6.4883,6.5469,6.5859,6.5859,6.6523,6.6914,6.6914,6.6914,6.6914,6.6914,6.6914,6.6914,6.6914,6.6914,6.6914,6.6914,6.6914,6.6914,4.5205,4.559,4.624,4.624,0.0,0.0,0.0,4.7208,4.7847,4.8854,0.0,0.0,0.0,0.0,0.0,0.0,0.0,0.0,0.0,0.0,0.0,0.0,0.0,0.0,6.164,6.1719,6.1719,6.1719,6.1719,6.1719,6.1719,6.1719,6.1719,6.1719,6.1719,6.1719,6.1719,6.1719,6.1719,6.1719,6.1719,6.1719,6.1719,6.1719,6.1677,6.1587,6.1587,6.1574,6.1504,6.1504,6.1504,6.1507,6.1578,6.1635,6.1679,6.1568,6.1526,6.1584,6.1516,6.1526,6.1587,6.1587,6.1636,6.1719,6.1719,6.1719,6.1719,6.1719,6.1719,6.1719,6.1719,6.1719,6.1719,6.1719,6.1719,6.1719,6.1719,6.1719,6.1719,6.1719,6.2422,6.2851,6.2422,6.3086,6.3789,6.4258,6.4687,6.5117,6.5547,6.5586,6.543,6.5,6.4961,6.4765,6.4336,6.4687,6.4961,6.4961,6.5781,6.625,6.625,6.668,6.6914,6.6914,6.6914,6.6914,6.6914,6.6914,6.6914,6.6914,6.6914,6.6914,0.0,0.0,0.0,0.0,0.0,4.7003,0.0,0.0,0.0,4.8853,0.0,0.0,0.0,0.0,0.0,0.0,0.0,0.0,0.0,0.0,0.0,0.0,0.0,0.0,0.0,6.1328,6.1367,6.168,6.1406,6.1367,6.168,6.1719,6.1719,6.1719,6.1719,6.1719,6.1719,6.1719,6.1719,6.1719,6.1678,6.1677,6.1677,6.1634,6.1574,6.1478,6.1478,6.1389,6.1286,6.1286,6.1286,6.1298,6.1406,6.1519,6.1586,6.1371,6.1361,6.1467,6.1328,6.1378,6.1504,6.1504,6.1584,6.1719,6.1719,6.1719,6.1719,6.1719,6.1719,6.1719,6.1719,6.1719,6.1719,6.1719,6.1719,6.1719,6.1719,6.1719,6.1719,6.1719,6.1719,6.1719,6.1719,6.2265,6.2812,6.2969,6.3594,6.4101,6.4297,6.4297,6.4258,6.4062,6.4062,6.3984,6.3828,6.3945,6.4062,6.4062,6.4883,6.5351,6.5351,6.6015,6.6484,6.664,6.664,6.6719,6.6914,6.6914,6.6914,6.6914,6.6914,6.6914,0.0,0.0,0.0,0.0,4.9157,0.0,0.0,0.0,4.7978,4.6765,0.0,0.0,0.0,0.0,0.0,0.0,0.0,0.0,0.0,0.0,0.0,0.0,0.0,0.0,0.0,0.0,6.0117,6.1601,6.0312,6.0117,6.1601,6.1719,6.1719,6.1719,6.1719,6.1719,6.1719,6.1719,6.1719,6.1719,6.158,6.1516,6.1514,6.1389,6.1328,6.1312,6.1312,6.1304,6.1286,6.1286,6.1286,6.1286,6.1306,6.1323,6.1334,6.1298,6.1298,6.1309,6.1292,6.1378,6.1504,6.1504,6.1584,6.1719,6.1719,6.1719,6.1719,6.1719,6.1719,6.1719,6.1719,6.1719,6.1719,6.1719,6.1719,6.1719,6.1719,6.1719,6.1719,6.1719,6.1719,6.1719,6.1719,6.1797,6.2109,6.289,6.3086,6.3437,6.4219,6.4297,6.3984,6.3242,6.3164,6.2812,6.207,6.2695,6.3164,6.3164,6.3984,6.4453,6.4453,6.4531,6.4961,6.5742,6.5742,6.6133,6.6914,6.6914,6.6914,6.6914,6.6914,6.6914,0.0,0.0,0.0,0.0,0.0,0.0,4.7018,0.0,4.7062,0.0,0.0,0.0,0.0,0.0,0.0,0.0,0.0,0.0,0.0,0.0,0.0,0.0,0.0,0.0,0.0,0.0,0.0,0.0,0.0,5.9726,6.0898,6.1445,6.1719,6.1719,6.1632,6.1581,6.1581,6.1581,6.1581,6.1581,6.1517,6.1504,6.1501,6.1354,6.1234,6.1135,6.1135,6.1065,6.1016,6.1016,6.1016,6.1016,6.1016,6.114,6.1262,6.1079,6.1066,6.1116,6.1027,6.1089,6.1229,6.1352,6.1519,6.1679,6.1628,6.1635,6.1719,6.1719,6.1719,6.1719,6.1719,6.1719,6.1719,6.1719,6.1719,6.1719,6.1719,6.1719,6.1719,6.1719,6.1719,6.1719,6.1719,6.1719,6.1836,6.2187,6.2265,6.2383,6.2734,6.2773,6.2656,6.2265,6.2265,6.2109,6.1719,6.2031,6.2265,6.2265,6.3047,6.3789,6.4297,6.4297,6.4453,6.4844,6.4844,6.5273,6.6133,6.6133,6.6406,6.6914,6.6914,6.6914,4.8861,0.0,0.0,0.0,0.0,0.0,0.0,0.0,0.0,0.0,0.0,0.0,0.0,0.0,0.0,0.0,0.0,0.0,0.0,0.0,0.0,0.0,0.0,0.0,0.0,0.0,0.0,0.0,0.0,0.0,6.0312,6.1015,6.1445,6.1636,6.1568,6.1491,6.1467,6.1465,6.1465,6.1426,6.1398,6.1344,6.1378,6.1227,6.1099,6.094,6.094,6.0908,6.0787,6.0787,6.0787,6.0787,6.0787,6.0963,6.1143,6.0904,6.0844,6.0911,6.0823,6.0902,6.104,6.1234,6.1417,6.1579,6.1514,6.1576,6.1637,6.1679,6.1719,6.1719,6.1719,6.1719,6.1719,6.1719,6.1719,6.1719,6.1719,6.1719,6.1719,6.1719,6.1719,6.1719,6.1719,6.1719,6.1719,6.1719,6.1719,6.1719,6.1719,6.1719,6.1719,6.1719,6.1719,6.1719,6.1719,6.1719,6.1719,6.1719,6.2305,6.293,6.3555,6.3594,6.3711,6.3945,6.3945,6.4375,6.5234,6.5234,6.5586,6.6211,6.668,6.6914,0.0,0.0,0.0,4.907,0.0,0.0,0.0,0.0,4.8594,0.0,0.0,0.0,0.0,0.0,0.0,0.0,0.0,0.0,0.0,0.0,0.0,0.0,0.0,0.0,0.0,0.0,0.0,0.0,0.0,0.0,6.0234,6.043,6.0776,6.147,6.1504,6.1421,6.1295,6.1295,6.1295,6.1292,6.112,6.1023,6.1014,6.0871,6.081,6.0798,6.0798,6.0793,6.0787,6.0787,6.0787,6.0787,6.0787,6.0798,6.081,6.0793,6.0793,6.0798,6.0787,6.0902,6.104,6.1234,6.1292,6.1328,6.1478,6.1505,6.1521,6.1677,6.1719,6.1719,6.1719,6.1719,6.1719,6.1719,6.1719,6.1719,6.1719,6.1719,6.1719,6.1719,6.1719,6.1719,6.1719,6.1719,6.1719,6.1719,6.1719,6.1719,6.1719,6.1719,6.1719,6.1719,6.1719,6.1719,6.1719,6.1719,6.1719,6.1719,6.1719,6.1758,6.1797,6.1797,6.2187,6.3047,6.3047,6.3476,6.4336,6.4336,6.4375,6.4414,6.6094,6.6914,0.0,0.0,5.1131,4.9813,0.0,0.0,0.0,0.0,0.0,0.0,0.0,0.0,0.0,0.0,0.0,0.0,0.0,0.0,0.0,0.0,0.0,0.0,0.0,0.0,0.0,0.0,0.0,0.0,5.5625,0.0,0.0,5.9805,6.0507,6.0775,6.1164,6.1336,6.1286,6.1176,6.1109,6.1109,6.1036,6.1001,6.0993,6.0844,6.0787,6.0787,6.0787,6.0787,6.0787,6.0787,6.0787,6.0787,6.0787,6.0787,6.0787,6.0787,6.0787,6.0787,6.0787,6.0902,6.0988,6.0983,6.1128,6.1295,6.1347,6.1415,6.1519,6.1677,6.1719,6.1719,6.1719,6.1634,6.1576,6.1576,6.1502,6.1458,6.1458,6.1458,6.1458,6.1458,6.1458,6.1458,6.1458,6.1458,6.1501,6.1678,6.1719,6.1719,6.1719,6.1719,6.1719,6.1719,6.1719,6.1719,6.1719,6.1719,6.1719,6.1719,6.1719,6.1719,6.1719,6.1719,6.1836,6.2148,6.2148,6.2578,6.3437,6.3437,6.375,6.4297,6.4883,6.5195,5.0932,5.1156,0.0,5.0241,4.9667,0.0,4.7851,0.0,0.0,0.0,0.0,0.0,0.0,0.0,0.0,0.0,0.0,0.0,0.0,0.0,0.0,0.0,0.0,0.0,0.0,0.0,5.2539,5.4258,0.0,0.0,0.0,0.0,6.0075,6.0244,6.0949,6.123,6.1132,6.0986,6.0945,6.0945,6.0945,6.0945,6.094,6.0834,6.0787,6.0787,6.0787,6.0787,6.0787,6.0787,6.0787,6.0787,6.0787,6.0787,6.0787,6.0787,6.0787,6.0787,6.0787,6.0872,6.092,6.0811,6.0958,6.1143,6.1176,6.1238,6.1378,6.1515,6.1572,6.1572,6.1572,6.1499,6.1415,6.1415,6.1354,6.1286,6.1286,6.1286,6.1286,6.1286,6.1328,6.1364,6.1364,6.14,6.1493,6.1629,6.1633,6.1636,6.168,6.1719,6.1719,6.1719,6.1677,6.1629,6.1573,6.1587,6.1628,6.1573,6.1587,6.1628,6.1573,6.1587,6.1633,6.1633,6.1679,6.1992,6.2539,6.2539,6.2812,6.3398,6.3398,6.3398]}]]